Time,TemperatureF,DewpointF,PressureIn,WindDirection,WindDirectionDegrees,WindSpeedMPH,WindSpeedGustMPH,Humidity,HourlyPrecipIn,Conditions,Clouds,dailyrainin,SoftwareType,DateUTC
2013-10-08 00:01:00,53.4,45.0,29.18,South,189,4.0,4.0,73,0.00,,,0.00,VWS V13.01,2013-10-08 05:01:00,
2013-10-08 00:02:00,53.2,44.8,29.18,South,189,4.0,4.0,73,0.00,,,0.00,VWS V13.01,2013-10-08 05:02:00,
2013-10-08 00:03:00,53.2,44.8,29.18,South,189,3.1,3.1,73,0.00,,,0.00,VWS V13.01,2013-10-08 05:03:00,
2013-10-08 00:06:00,53.1,44.7,29.18,South,189,4.0,4.0,73,0.00,,,0.00,VWS V13.01,2013-10-08 05:06:00,
2013-10-08 00:07:00,53.1,44.7,29.18,South,189,4.0,4.0,73,0.00,,,0.00,VWS V13.01,2013-10-08 05:07:00,
2013-10-08 00:08:00,53.1,44.7,29.18,South,189,4.9,4.9,73,0.00,,,0.00,VWS V13.01,2013-10-08 05:08:00,
2013-10-08 00:11:00,53.1,44.7,29.18,South,189,4.0,4.0,73,0.00,,,0.00,VWS V13.01,2013-10-08 05:11:00,
2013-10-08 00:12:00,53.1,44.7,29.18,South,189,4.5,4.5,73,0.00,,,0.00,VWS V13.01,2013-10-08 05:12:00,
2013-10-08 00:13:00,53.2,44.8,29.18,South,189,5.4,5.4,73,0.00,,,0.00,VWS V13.01,2013-10-08 05:13:00,
2013-10-08 00:16:00,53.2,44.8,29.18,South,189,4.9,4.9,73,0.00,,,0.00,VWS V13.01,2013-10-08 05:16:00,
2013-10-08 00:17:00,53.1,44.7,29.18,South,189,4.9,4.9,73,0.00,,,0.00,VWS V13.01,2013-10-08 05:17:00,
2013-10-08 00:18:00,53.1,44.7,29.18,South,189,4.9,4.9,73,0.00,,,0.00,VWS V13.01,2013-10-08 05:18:00,
2013-10-08 00:21:00,53.1,44.7,29.18,South,189,4.9,4.9,73,0.00,,,0.00,VWS V13.01,2013-10-08 05:21:00,
2013-10-08 00:22:00,53.1,44.7,29.18,South,189,5.4,5.4,73,0.00,,,0.00,VWS V13.01,2013-10-08 05:22:00,
2013-10-08 00:24:00,53.1,44.7,29.18,South,189,5.4,5.4,73,0.00,,,0.00,VWS V13.01,2013-10-08 05:24:00,
2013-10-08 00:26:00,53.1,44.7,29.18,South,189,5.4,5.4,73,0.00,,,0.00,VWS V13.01,2013-10-08 05:26:00,
2013-10-08 00:27:00,53.1,44.7,29.18,South,189,5.4,5.4,73,0.00,,,0.00,VWS V13.01,2013-10-08 05:27:00,
2013-10-08 00:28:00,52.9,44.5,29.18,South,189,3.6,3.6,73,0.00,,,0.00,VWS V13.01,2013-10-08 05:28:00,
2013-10-08 00:29:00,52.7,44.3,29.18,South,189,4.0,4.0,73,0.00,,,0.00,VWS V13.01,2013-10-08 05:29:00,
2013-10-08 00:31:00,52.5,48.2,29.18,South,189,5.4,5.4,85,0.00,,,0.00,VWS V13.01,2013-10-08 05:31:00,
2013-10-08 00:32:00,52.5,48.2,29.18,South,189,4.0,4.0,85,0.00,,,0.00,VWS V13.01,2013-10-08 05:32:00,
2013-10-08 00:33:00,52.5,48.2,29.18,South,189,4.0,4.0,85,0.00,,,0.00,VWS V13.01,2013-10-08 05:33:00,
2013-10-08 00:34:00,52.3,48.0,29.18,South,189,4.5,4.5,85,0.00,,,0.00,VWS V13.01,2013-10-08 05:34:00,
2013-10-08 00:36:00,52.3,48.0,29.18,South,189,5.4,5.4,85,0.00,,,0.00,VWS V13.01,2013-10-08 05:36:00,
2013-10-08 00:37:00,52.3,48.0,29.18,South,189,4.5,4.5,85,0.00,,,0.00,VWS V13.01,2013-10-08 05:37:00,
2013-10-08 00:38:00,52.2,47.8,29.18,South,189,4.9,4.9,85,0.00,,,0.00,VWS V13.01,2013-10-08 05:38:00,
2013-10-08 00:39:00,52.2,47.8,29.18,South,189,4.9,4.9,85,0.00,,,0.00,VWS V13.01,2013-10-08 05:39:00,
2013-10-08 00:41:00,52.0,47.6,29.18,South,189,5.4,5.4,85,0.00,,,0.00,VWS V13.01,2013-10-08 05:41:00,
2013-10-08 00:42:00,52.0,47.6,29.18,South,189,4.5,4.5,85,0.00,,,0.00,VWS V13.01,2013-10-08 05:42:00,
2013-10-08 00:43:00,52.0,47.6,29.18,South,189,5.4,5.4,85,0.00,,,0.00,VWS V13.01,2013-10-08 05:43:00,
2013-10-08 00:44:00,52.0,47.6,29.18,South,189,4.5,4.5,85,0.00,,,0.00,VWS V13.01,2013-10-08 05:44:00,
2013-10-08 00:46:00,51.8,47.4,29.18,South,189,5.4,5.4,85,0.00,,,0.00,VWS V13.01,2013-10-08 05:46:00,
2013-10-08 00:47:00,51.8,47.4,29.18,South,189,4.9,4.9,85,0.00,,,0.00,VWS V13.01,2013-10-08 05:47:00,
2013-10-08 00:48:00,51.6,49.1,29.18,South,189,4.0,4.0,91,0.00,,,0.00,VWS V13.01,2013-10-08 05:48:00,
2013-10-08 00:49:00,51.8,47.4,29.18,South,189,4.9,4.9,85,0.00,,,0.00,VWS V13.01,2013-10-08 05:49:00,
2013-10-08 00:51:00,51.6,49.1,29.18,South,189,5.8,5.8,91,0.00,,,0.00,VWS V13.01,2013-10-08 05:51:00,
2013-10-08 00:52:00,51.6,49.1,29.18,South,191,5.4,5.4,91,0.00,,,0.00,VWS V13.01,2013-10-08 05:52:00,
2013-10-08 00:54:00,51.6,49.1,29.18,South,190,4.9,4.9,91,0.00,,,0.00,VWS V13.01,2013-10-08 05:54:00,
2013-10-08 00:55:00,51.6,49.1,29.18,South,190,5.4,5.4,91,0.00,,,0.00,VWS V13.01,2013-10-08 05:55:00,
2013-10-08 00:56:00,51.6,49.1,29.18,South,190,5.4,5.4,91,0.00,,,0.00,VWS V13.01,2013-10-08 05:56:00,
2013-10-08 00:57:00,51.6,49.1,29.18,South,190,4.9,4.9,91,0.00,,,0.00,VWS V13.01,2013-10-08 05:57:00,
2013-10-08 00:59:00,51.6,49.1,29.18,South,190,4.9,4.9,91,0.00,,,0.00,VWS V13.01,2013-10-08 05:59:00,
2013-10-08 01:00:00,51.6,49.1,29.18,South,190,4.0,4.0,91,0.00,,,0.00,VWS V13.01,2013-10-08 06:00:00,
2013-10-08 01:01:00,51.6,49.1,29.18,South,190,4.5,4.5,91,0.00,,,0.00,VWS V13.01,2013-10-08 06:01:00,
2013-10-08 01:02:00,51.4,48.9,29.18,South,190,4.9,4.9,91,0.00,,,0.00,VWS V13.01,2013-10-08 06:02:00,
2013-10-08 01:04:00,51.6,49.1,29.18,South,190,4.0,4.0,91,0.00,,,0.00,VWS V13.01,2013-10-08 06:04:00,
2013-10-08 01:05:00,51.6,49.1,29.18,South,190,5.4,5.4,91,0.00,,,0.00,VWS V13.01,2013-10-08 06:05:00,
2013-10-08 01:06:00,51.6,49.1,29.18,South,190,4.0,4.0,91,0.00,,,0.00,VWS V13.01,2013-10-08 06:06:00,
2013-10-08 01:07:00,51.6,49.1,29.18,South,190,4.9,4.9,91,0.00,,,0.00,VWS V13.01,2013-10-08 06:07:00,
2013-10-08 01:09:00,51.8,47.4,29.18,SSW,192,4.9,4.9,85,0.00,,,0.00,VWS V13.01,2013-10-08 06:09:00,
2013-10-08 01:10:00,51.8,47.4,29.18,SSW,192,4.0,4.0,85,0.00,,,0.00,VWS V13.01,2013-10-08 06:10:00,
2013-10-08 01:12:00,51.6,49.1,29.18,South,191,4.9,4.9,91,0.00,,,0.00,VWS V13.01,2013-10-08 06:12:00,
2013-10-08 01:14:00,51.4,48.9,29.18,South,189,4.0,4.0,91,0.00,,,0.00,VWS V13.01,2013-10-08 06:14:00,
2013-10-08 01:16:00,51.4,48.9,29.18,South,189,4.9,4.9,91,0.00,,,0.00,VWS V13.01,2013-10-08 06:16:00,
2013-10-08 01:17:00,51.4,48.9,29.18,South,189,4.9,4.9,91,0.00,,,0.00,VWS V13.01,2013-10-08 06:17:00,
2013-10-08 01:18:00,51.4,48.9,29.18,South,190,4.9,4.9,91,0.00,,,0.00,VWS V13.01,2013-10-08 06:18:00,
2013-10-08 01:20:00,51.4,48.9,29.18,South,190,4.0,4.0,91,0.00,,,0.00,VWS V13.01,2013-10-08 06:20:00,
2013-10-08 01:21:00,51.3,48.7,29.18,South,190,3.6,3.6,91,0.00,,,0.00,VWS V13.01,2013-10-08 06:21:00,
2013-10-08 01:22:00,51.3,51.3,29.18,South,188,4.0,4.0,100,0.00,,,0.00,VWS V13.01,2013-10-08 06:22:00,
2013-10-08 01:23:00,51.4,51.4,29.18,South,188,5.4,5.4,100,0.00,,,0.00,VWS V13.01,2013-10-08 06:23:00,
2013-10-08 01:25:00,51.4,51.4,29.18,South,188,5.8,5.8,100,0.00,,,0.00,VWS V13.01,2013-10-08 06:25:00,
2013-10-08 01:26:00,51.4,51.4,29.18,South,189,5.4,5.4,100,0.00,,,0.00,VWS V13.01,2013-10-08 06:26:00,
2013-10-08 01:27:00,51.4,51.4,29.18,South,190,5.4,5.4,100,0.00,,,0.00,VWS V13.01,2013-10-08 06:27:00,
2013-10-08 01:28:00,51.4,51.4,29.18,South,188,5.8,5.8,100,0.00,,,0.00,VWS V13.01,2013-10-08 06:28:00,
2013-10-08 01:30:00,51.3,51.3,29.18,SSW,194,4.0,4.0,100,0.00,,,0.00,VWS V13.01,2013-10-08 06:30:00,
2013-10-08 01:31:00,51.1,51.1,29.18,South,189,4.0,4.0,100,0.00,,,0.00,VWS V13.01,2013-10-08 06:31:00,
2013-10-08 01:32:00,51.1,51.1,29.18,South,189,3.6,3.6,100,0.00,,,0.00,VWS V13.01,2013-10-08 06:32:00,
2013-10-08 01:33:00,50.9,50.9,29.18,South,189,3.6,3.6,100,0.00,,,0.00,VWS V13.01,2013-10-08 06:33:00,
2013-10-08 01:35:00,50.9,50.9,29.18,South,189,4.0,4.0,100,0.00,,,0.00,VWS V13.01,2013-10-08 06:35:00,
2013-10-08 01:36:00,50.9,50.9,29.18,South,189,3.1,3.1,100,0.00,,,0.00,VWS V13.01,2013-10-08 06:36:00,
2013-10-08 01:37:00,50.7,50.7,29.18,South,189,4.0,4.0,100,0.00,,,0.00,VWS V13.01,2013-10-08 06:37:00,
2013-10-08 01:38:00,50.9,50.9,29.18,South,189,4.9,4.9,100,0.00,,,0.00,VWS V13.01,2013-10-08 06:38:00,
2013-10-08 01:40:00,50.9,50.9,29.18,South,180,4.0,4.0,100,0.00,,,0.00,VWS V13.01,2013-10-08 06:40:00,
2013-10-08 01:41:00,50.9,50.9,29.18,South,180,3.6,3.6,100,0.00,,,0.00,VWS V13.01,2013-10-08 06:41:00,
2013-10-08 01:42:00,50.7,50.7,29.18,South,180,3.1,3.1,100,0.00,,,0.00,VWS V13.01,2013-10-08 06:42:00,
2013-10-08 01:43:00,50.7,50.7,29.18,South,180,3.6,3.6,100,0.00,,,0.00,VWS V13.01,2013-10-08 06:43:00,
2013-10-08 01:45:00,50.9,50.9,29.18,South,185,3.6,3.6,100,0.00,,,0.00,VWS V13.01,2013-10-08 06:45:00,
2013-10-08 01:46:00,50.9,50.9,29.18,South,185,3.6,3.6,100,0.00,,,0.00,VWS V13.01,2013-10-08 06:46:00,
2013-10-08 01:47:00,50.9,50.9,29.18,South,187,4.0,4.0,100,0.00,,,0.00,VWS V13.01,2013-10-08 06:47:00,
2013-10-08 01:48:00,50.9,50.9,29.18,South,187,3.6,3.6,100,0.00,,,0.00,VWS V13.01,2013-10-08 06:48:00,
2013-10-08 01:50:00,50.9,50.9,29.18,South,187,3.6,3.6,100,0.00,,,0.00,VWS V13.01,2013-10-08 06:50:00,
2013-10-08 01:51:00,50.9,50.9,29.18,South,188,4.5,4.5,100,0.00,,,0.00,VWS V13.01,2013-10-08 06:51:00,
2013-10-08 01:52:00,50.9,50.9,29.18,South,188,4.0,4.0,100,0.00,,,0.00,VWS V13.01,2013-10-08 06:52:00,
2013-10-08 01:53:00,50.9,50.9,29.18,South,188,3.6,3.6,100,0.00,,,0.00,VWS V13.01,2013-10-08 06:53:00,
2013-10-08 01:55:00,50.7,50.7,29.18,South,188,4.0,4.0,100,0.00,,,0.00,VWS V13.01,2013-10-08 06:55:00,
2013-10-08 01:56:00,50.7,50.7,29.18,South,188,4.0,4.0,100,0.00,,,0.00,VWS V13.01,2013-10-08 06:56:00,
2013-10-08 01:57:00,50.7,50.7,29.18,South,188,3.6,3.6,100,0.00,,,0.00,VWS V13.01,2013-10-08 06:57:00,
2013-10-08 01:58:00,50.5,50.5,29.18,South,188,4.0,4.0,100,0.00,,,0.00,VWS V13.01,2013-10-08 06:58:00,
2013-10-08 02:01:00,50.5,50.5,29.18,South,188,3.6,3.6,100,0.00,,,0.00,VWS V13.01,2013-10-08 07:01:00,
2013-10-08 02:02:00,50.7,50.7,29.18,SSW,192,3.6,3.6,100,0.00,,,0.00,VWS V13.01,2013-10-08 07:02:00,
2013-10-08 02:03:00,50.5,50.5,29.18,SSW,192,3.6,3.6,100,0.00,,,0.00,VWS V13.01,2013-10-08 07:03:00,
2013-10-08 02:06:00,50.7,50.7,29.18,South,191,3.6,3.6,100,0.00,,,0.00,VWS V13.01,2013-10-08 07:06:00,
2013-10-08 02:07:00,50.7,50.7,29.18,South,185,4.0,4.0,100,0.00,,,0.00,VWS V13.01,2013-10-08 07:07:00,
2013-10-08 02:08:00,50.7,50.7,29.18,South,191,4.9,4.9,100,0.00,,,0.00,VWS V13.01,2013-10-08 07:08:00,
2013-10-08 02:11:00,50.7,50.7,29.18,SSW,193,5.8,5.8,100,0.00,,,0.00,VWS V13.01,2013-10-08 07:11:00,
2013-10-08 02:12:00,50.7,50.7,29.18,SSW,193,5.4,5.4,100,0.00,,,0.00,VWS V13.01,2013-10-08 07:12:00,
2013-10-08 02:13:00,50.7,50.7,29.18,SSW,193,4.9,4.9,100,0.00,,,0.00,VWS V13.01,2013-10-08 07:13:00,
2013-10-08 02:16:00,50.5,50.5,29.18,South,186,3.6,3.6,100,0.00,,,0.00,VWS V13.01,2013-10-08 07:16:00,
2013-10-08 02:17:00,50.5,50.5,29.18,South,186,4.0,4.0,100,0.00,,,0.00,VWS V13.01,2013-10-08 07:17:00,
2013-10-08 02:18:00,50.5,50.5,29.18,South,188,3.6,3.6,100,0.00,,,0.00,VWS V13.01,2013-10-08 07:18:00,
2013-10-08 02:19:00,50.4,50.4,29.18,South,188,4.0,4.0,100,0.00,,,0.00,VWS V13.01,2013-10-08 07:19:00,
2013-10-08 02:21:00,50.4,50.4,29.18,South,188,4.0,4.0,100,0.00,,,0.00,VWS V13.01,2013-10-08 07:21:00,
2013-10-08 02:22:00,50.2,50.2,29.18,South,181,4.0,4.0,100,0.00,,,0.00,VWS V13.01,2013-10-08 07:22:00,
2013-10-08 02:23:00,50.2,50.2,29.18,South,181,3.6,3.6,100,0.00,,,0.00,VWS V13.01,2013-10-08 07:23:00,
2013-10-08 02:24:00,50.2,50.2,29.18,South,181,4.0,4.0,100,0.00,,,0.00,VWS V13.01,2013-10-08 07:24:00,
2013-10-08 02:26:00,50.2,50.2,29.18,South,185,4.0,4.0,100,0.00,,,0.00,VWS V13.01,2013-10-08 07:26:00,
2013-10-08 02:27:00,50.4,50.4,29.18,South,185,4.0,4.0,100,0.00,,,0.00,VWS V13.01,2013-10-08 07:27:00,
2013-10-08 02:28:00,50.4,50.4,29.18,South,189,4.0,4.0,100,0.00,,,0.00,VWS V13.01,2013-10-08 07:28:00,
2013-10-08 02:29:00,50.4,50.4,29.18,South,189,4.0,4.0,100,0.00,,,0.00,VWS V13.01,2013-10-08 07:29:00,
2013-10-08 02:31:00,50.5,50.5,29.18,South,187,4.5,4.5,100,0.00,,,0.00,VWS V13.01,2013-10-08 07:31:00,
2013-10-08 02:33:00,50.5,50.5,29.18,South,190,4.0,4.0,100,0.00,,,0.00,VWS V13.01,2013-10-08 07:33:00,
2013-10-08 02:34:00,50.5,50.5,29.18,South,189,4.0,4.0,100,0.00,,,0.00,VWS V13.01,2013-10-08 07:34:00,
2013-10-08 02:36:00,50.5,50.5,29.18,South,187,4.0,4.0,100,0.00,,,0.00,VWS V13.01,2013-10-08 07:36:00,
2013-10-08 02:38:00,50.5,50.5,29.18,South,190,4.9,4.9,100,0.00,,,0.00,VWS V13.01,2013-10-08 07:38:00,
2013-10-08 02:39:00,50.5,50.5,29.18,South,190,4.5,4.5,100,0.00,,,0.00,VWS V13.01,2013-10-08 07:39:00,
2013-10-08 02:41:00,50.5,50.5,29.18,South,188,4.0,4.0,100,0.00,,,0.00,VWS V13.01,2013-10-08 07:41:00,
2013-10-08 02:43:00,50.5,50.5,29.18,South,190,4.0,4.0,100,0.00,,,0.00,VWS V13.01,2013-10-08 07:43:00,
2013-10-08 02:44:00,50.5,50.5,29.18,South,190,4.0,4.0,100,0.00,,,0.00,VWS V13.01,2013-10-08 07:44:00,
2013-10-08 02:46:00,50.4,50.4,29.18,South,189,3.6,3.6,100,0.00,,,0.00,VWS V13.01,2013-10-08 07:46:00,
2013-10-08 02:48:00,50.4,50.4,29.18,South,189,3.1,3.1,100,0.00,,,0.00,VWS V13.01,2013-10-08 07:48:00,
2013-10-08 02:49:00,50.4,50.4,29.18,South,188,4.0,4.0,100,0.00,,,0.00,VWS V13.01,2013-10-08 07:49:00,
2013-10-08 02:51:00,50.2,50.2,29.18,South,188,4.0,4.0,100,0.00,,,0.00,VWS V13.01,2013-10-08 07:51:00,
2013-10-08 02:53:00,50.2,50.2,29.18,South,187,4.0,4.0,100,0.00,,,0.00,VWS V13.01,2013-10-08 07:53:00,
2013-10-08 02:54:00,50.2,50.2,29.18,South,187,3.6,3.6,100,0.00,,,0.00,VWS V13.01,2013-10-08 07:54:00,
2013-10-08 02:56:00,50.2,50.2,29.18,South,187,4.0,4.0,100,0.00,,,0.00,VWS V13.01,2013-10-08 07:56:00,
2013-10-08 02:57:00,50.2,50.2,29.18,South,187,4.0,4.0,100,0.00,,,0.00,VWS V13.01,2013-10-08 07:57:00,
2013-10-08 02:58:00,50.2,50.2,29.18,South,187,3.6,3.6,100,0.00,,,0.00,VWS V13.01,2013-10-08 07:58:00,
2013-10-08 02:59:00,50.2,50.2,29.18,South,187,4.0,4.0,100,0.00,,,0.00,VWS V13.01,2013-10-08 07:59:00,
2013-10-08 03:02:00,50.2,50.2,29.18,South,187,3.1,3.1,100,0.00,,,0.00,VWS V13.01,2013-10-08 08:02:00,
2013-10-08 03:03:00,50.2,50.2,29.18,South,187,4.5,4.5,100,0.00,,,0.00,VWS V13.01,2013-10-08 08:03:00,
2013-10-08 03:04:00,50.4,50.4,29.18,South,187,3.6,3.6,100,0.00,,,0.00,VWS V13.01,2013-10-08 08:04:00,
2013-10-08 03:07:00,50.2,50.2,29.18,South,188,3.1,3.1,100,0.00,,,0.00,VWS V13.01,2013-10-08 08:07:00,
2013-10-08 03:08:00,50.2,50.2,29.18,South,188,2.7,2.7,100,0.00,,,0.00,VWS V13.01,2013-10-08 08:08:00,
2013-10-08 03:09:00,50.2,50.2,29.18,South,186,3.6,3.6,100,0.00,,,0.00,VWS V13.01,2013-10-08 08:09:00,
2013-10-08 03:12:00,50.2,50.2,29.18,South,190,4.0,4.0,100,0.00,,,0.00,VWS V13.01,2013-10-08 08:12:00,
2013-10-08 03:13:00,50.2,50.2,29.18,South,188,4.0,4.0,100,0.00,,,0.00,VWS V13.01,2013-10-08 08:13:00,
2013-10-08 03:14:00,50.0,50.0,29.18,South,188,3.1,3.1,100,0.00,,,0.00,VWS V13.01,2013-10-08 08:14:00,
2013-10-08 03:17:00,49.8,49.8,29.18,South,188,3.1,3.1,100,0.00,,,0.00,VWS V13.01,2013-10-08 08:17:00,
2013-10-08 03:18:00,49.8,49.8,29.18,South,188,4.9,4.9,100,0.00,,,0.00,VWS V13.01,2013-10-08 08:18:00,
2013-10-08 03:19:00,49.8,49.8,29.18,South,186,3.6,3.6,100,0.00,,,0.00,VWS V13.01,2013-10-08 08:19:00,
2013-10-08 03:20:00,49.8,49.8,29.18,South,186,3.6,3.6,100,0.00,,,0.00,VWS V13.01,2013-10-08 08:20:00,
2013-10-08 03:22:00,49.6,49.6,29.18,South,186,4.0,4.0,100,0.00,,,0.00,VWS V13.01,2013-10-08 08:22:00,
2013-10-08 03:23:00,49.6,49.6,29.18,South,187,3.6,3.6,100,0.00,,,0.00,VWS V13.01,2013-10-08 08:23:00,
2013-10-08 03:25:00,49.6,49.6,29.18,South,189,3.6,3.6,100,0.00,,,0.00,VWS V13.01,2013-10-08 08:25:00,
2013-10-08 03:27:00,49.5,49.5,29.18,South,189,4.0,4.0,100,0.00,,,0.00,VWS V13.01,2013-10-08 08:27:00,
2013-10-08 03:28:00,49.5,49.5,29.18,South,189,4.0,4.0,100,0.00,,,0.00,VWS V13.01,2013-10-08 08:28:00,
2013-10-08 03:30:00,49.5,49.5,29.18,South,189,4.0,4.0,100,0.00,,,0.00,VWS V13.01,2013-10-08 08:30:00,
2013-10-08 03:32:00,49.5,49.5,29.18,South,189,4.5,4.5,100,0.00,,,0.00,VWS V13.01,2013-10-08 08:32:00,
2013-10-08 03:33:00,49.5,49.5,29.18,South,189,3.6,3.6,100,0.00,,,0.00,VWS V13.01,2013-10-08 08:33:00,
2013-10-08 03:34:00,49.3,49.3,29.18,South,189,3.1,3.1,100,0.00,,,0.00,VWS V13.01,2013-10-08 08:34:00,
2013-10-08 03:35:00,49.3,49.3,29.18,South,186,4.0,4.0,100,0.00,,,0.00,VWS V13.01,2013-10-08 08:35:00,
2013-10-08 03:37:00,49.5,49.5,29.18,South,186,3.6,3.6,100,0.00,,,0.00,VWS V13.01,2013-10-08 08:37:00,
2013-10-08 03:38:00,49.5,49.5,29.18,South,186,3.1,3.1,100,0.00,,,0.00,VWS V13.01,2013-10-08 08:38:00,
2013-10-08 03:39:00,49.3,49.3,29.18,South,186,2.7,2.7,100,0.00,,,0.00,VWS V13.01,2013-10-08 08:39:00,
2013-10-08 03:40:00,49.3,49.3,29.18,South,186,3.6,3.6,100,0.00,,,0.00,VWS V13.01,2013-10-08 08:40:00,
2013-10-08 03:42:00,49.3,49.3,29.18,South,186,3.6,3.6,100,0.00,,,0.00,VWS V13.01,2013-10-08 08:42:00,
2013-10-08 03:43:00,49.3,49.3,29.18,South,186,3.1,3.1,100,0.00,,,0.00,VWS V13.01,2013-10-08 08:43:00,
2013-10-08 03:44:00,49.3,49.3,29.18,South,186,3.1,3.1,100,0.00,,,0.00,VWS V13.01,2013-10-08 08:44:00,
2013-10-08 03:45:00,49.3,49.3,29.18,South,186,2.7,2.7,100,0.00,,,0.00,VWS V13.01,2013-10-08 08:45:00,
2013-10-08 03:47:00,49.3,49.3,29.18,South,186,3.6,3.6,100,0.00,,,0.00,VWS V13.01,2013-10-08 08:47:00,
2013-10-08 03:48:00,49.1,49.1,29.18,South,186,3.1,3.1,100,0.00,,,0.00,VWS V13.01,2013-10-08 08:48:00,
2013-10-08 03:49:00,49.1,49.1,29.18,South,186,3.1,3.1,100,0.00,,,0.00,VWS V13.01,2013-10-08 08:49:00,
2013-10-08 03:50:00,49.1,49.1,29.18,South,186,2.7,2.7,100,0.00,,,0.00,VWS V13.01,2013-10-08 08:50:00,
2013-10-08 03:51:00,49.3,49.3,29.18,South,186,3.6,3.6,100,0.00,,,0.00,VWS V13.01,2013-10-08 08:51:00,
2013-10-08 03:52:00,49.1,49.1,29.18,South,186,2.7,2.7,100,0.00,,,0.00,VWS V13.01,2013-10-08 08:52:00,
2013-10-08 03:54:00,49.3,49.3,29.18,South,186,3.6,3.6,100,0.00,,,0.00,VWS V13.01,2013-10-08 08:54:00,
2013-10-08 03:55:00,49.3,49.3,29.18,South,186,3.1,3.1,100,0.00,,,0.00,VWS V13.01,2013-10-08 08:55:00,
2013-10-08 03:56:00,49.3,49.3,29.18,South,187,3.6,3.6,100,0.00,,,0.00,VWS V13.01,2013-10-08 08:56:00,
2013-10-08 03:57:00,49.1,49.1,29.18,South,187,3.6,3.6,100,0.00,,,0.00,VWS V13.01,2013-10-08 08:57:00,
2013-10-08 03:59:00,49.1,49.1,29.18,South,187,3.6,3.6,100,0.00,,,0.00,VWS V13.01,2013-10-08 08:59:00,
2013-10-08 04:00:00,49.1,49.1,29.18,South,187,2.7,2.7,100,0.00,,,0.00,VWS V13.01,2013-10-08 09:00:00,
2013-10-08 04:01:00,48.9,48.9,29.18,South,187,2.2,2.2,100,0.00,,,0.00,VWS V13.01,2013-10-08 09:01:00,
2013-10-08 04:03:00,48.9,48.9,29.18,South,187,3.1,3.1,100,0.00,,,0.00,VWS V13.01,2013-10-08 09:03:00,
2013-10-08 04:04:00,49.1,49.1,29.18,South,187,4.5,4.5,100,0.00,,,0.00,VWS V13.01,2013-10-08 09:04:00,
2013-10-08 04:05:00,49.1,49.1,29.18,South,187,3.1,3.1,100,0.00,,,0.00,VWS V13.01,2013-10-08 09:05:00,
2013-10-08 04:06:00,49.1,49.1,29.18,South,187,3.6,3.6,100,0.00,,,0.00,VWS V13.01,2013-10-08 09:06:00,
2013-10-08 04:08:00,49.3,49.3,29.18,South,187,3.6,3.6,100,0.00,,,0.00,VWS V13.01,2013-10-08 09:08:00,
2013-10-08 04:09:00,49.3,49.3,29.18,South,187,4.5,4.5,100,0.00,,,0.00,VWS V13.01,2013-10-08 09:09:00,
2013-10-08 04:10:00,49.3,49.3,29.18,South,189,3.1,3.1,100,0.00,,,0.00,VWS V13.01,2013-10-08 09:10:00,
2013-10-08 04:12:00,49.1,49.1,29.18,South,189,2.7,2.7,100,0.00,,,0.00,VWS V13.01,2013-10-08 09:12:00,
2013-10-08 04:13:00,49.1,49.1,29.18,South,189,3.1,3.1,100,0.00,,,0.00,VWS V13.01,2013-10-08 09:13:00,
2013-10-08 04:14:00,48.9,48.9,29.18,South,189,3.6,3.6,100,0.00,,,0.00,VWS V13.01,2013-10-08 09:14:00,
2013-10-08 04:15:00,48.9,48.9,29.18,South,189,4.0,4.0,100,0.00,,,0.00,VWS V13.01,2013-10-08 09:15:00,
2013-10-08 04:17:00,48.9,48.9,29.18,South,189,3.1,3.1,100,0.00,,,0.00,VWS V13.01,2013-10-08 09:17:00,
2013-10-08 04:18:00,48.9,48.9,29.18,South,189,2.7,2.7,100,0.00,,,0.00,VWS V13.01,2013-10-08 09:18:00,
2013-10-08 04:19:00,48.9,48.9,29.18,South,189,3.6,3.6,100,0.00,,,0.00,VWS V13.01,2013-10-08 09:19:00,
2013-10-08 04:20:00,48.9,48.9,29.18,South,189,3.6,3.6,100,0.00,,,0.00,VWS V13.01,2013-10-08 09:20:00,
2013-10-08 04:22:00,48.9,48.9,29.18,South,189,3.1,3.1,100,0.00,,,0.00,VWS V13.01,2013-10-08 09:22:00,
2013-10-08 04:23:00,48.9,48.9,29.18,South,189,2.7,2.7,100,0.00,,,0.00,VWS V13.01,2013-10-08 09:23:00,
2013-10-08 04:24:00,48.9,48.9,29.18,South,189,3.1,3.1,100,0.00,,,0.00,VWS V13.01,2013-10-08 09:24:00,
2013-10-08 04:25:00,48.9,48.9,29.18,South,189,3.1,3.1,100,0.00,,,0.00,VWS V13.01,2013-10-08 09:25:00,
2013-10-08 04:26:00,48.9,48.9,29.18,South,189,2.7,2.7,100,0.00,,,0.00,VWS V13.01,2013-10-08 09:26:00,
2013-10-08 04:27:00,48.7,48.7,29.18,South,189,3.1,3.1,100,0.00,,,0.00,VWS V13.01,2013-10-08 09:27:00,
2013-10-08 04:28:00,48.7,48.7,29.18,South,189,2.7,2.7,100,0.00,,,0.00,VWS V13.01,2013-10-08 09:28:00,
2013-10-08 04:29:00,48.7,48.7,29.18,South,189,3.1,3.1,100,0.00,,,0.00,VWS V13.01,2013-10-08 09:29:00,
2013-10-08 04:30:00,48.7,48.7,29.18,South,189,2.7,2.7,100,0.00,,,0.00,VWS V13.01,2013-10-08 09:30:00,
2013-10-08 04:31:00,48.7,48.7,29.18,South,189,3.1,3.1,100,0.00,,,0.00,VWS V13.01,2013-10-08 09:31:00,
2013-10-08 04:32:00,48.7,48.7,29.18,South,189,2.7,2.7,100,0.00,,,0.00,VWS V13.01,2013-10-08 09:32:00,
2013-10-08 04:33:00,48.7,48.7,29.18,South,189,3.1,3.1,100,0.00,,,0.00,VWS V13.01,2013-10-08 09:33:00,
2013-10-08 04:34:00,48.7,48.7,29.18,South,189,3.1,3.1,100,0.00,,,0.00,VWS V13.01,2013-10-08 09:34:00,
2013-10-08 04:35:00,48.7,48.7,29.18,South,188,4.0,4.0,100,0.00,,,0.00,VWS V13.01,2013-10-08 09:35:00,
2013-10-08 04:36:00,48.7,48.7,29.18,South,188,2.7,2.7,100,0.00,,,0.00,VWS V13.01,2013-10-08 09:36:00,
2013-10-08 04:37:00,48.7,48.7,29.18,South,188,3.6,3.6,100,0.00,,,0.00,VWS V13.01,2013-10-08 09:37:00,
2013-10-08 04:38:00,48.7,48.7,29.18,South,188,3.1,3.1,100,0.00,,,0.00,VWS V13.01,2013-10-08 09:38:00,
2013-10-08 04:39:00,48.7,48.7,29.18,South,188,3.1,3.1,100,0.00,,,0.00,VWS V13.01,2013-10-08 09:39:00,
2013-10-08 04:40:00,48.7,48.7,29.18,South,188,2.7,2.7,100,0.00,,,0.00,VWS V13.01,2013-10-08 09:40:00,
2013-10-08 04:41:00,48.6,48.6,29.18,South,188,2.7,2.7,100,0.00,,,0.00,VWS V13.01,2013-10-08 09:41:00,
2013-10-08 04:42:00,48.6,48.6,29.18,South,188,4.0,4.0,100,0.00,,,0.00,VWS V13.01,2013-10-08 09:42:00,
2013-10-08 04:44:00,48.7,48.7,29.18,South,188,3.1,3.1,100,0.00,,,0.00,VWS V13.01,2013-10-08 09:44:00,
2013-10-08 04:45:00,48.7,48.7,29.18,South,188,2.7,2.7,100,0.00,,,0.00,VWS V13.01,2013-10-08 09:45:00,
2013-10-08 04:46:00,48.7,48.7,29.18,South,188,2.7,2.7,100,0.00,,,0.00,VWS V13.01,2013-10-08 09:46:00,
2013-10-08 04:47:00,48.7,48.7,29.18,South,188,3.6,3.6,100,0.00,,,0.00,VWS V13.01,2013-10-08 09:47:00,
2013-10-08 04:49:00,48.7,48.7,29.18,South,188,4.0,4.0,100,0.00,,,0.00,VWS V13.01,2013-10-08 09:49:00,
2013-10-08 04:50:00,48.7,48.7,29.18,South,188,3.6,3.6,100,0.00,,,0.00,VWS V13.01,2013-10-08 09:50:00,
2013-10-08 04:51:00,48.7,48.7,29.18,South,188,3.6,3.6,100,0.00,,,0.00,VWS V13.01,2013-10-08 09:51:00,
2013-10-08 04:53:00,48.6,48.6,29.18,South,188,3.1,3.1,100,0.00,,,0.00,VWS V13.01,2013-10-08 09:53:00,
2013-10-08 04:54:00,48.6,48.6,29.18,South,188,2.7,2.7,100,0.00,,,0.00,VWS V13.01,2013-10-08 09:54:00,
2013-10-08 04:55:00,48.6,48.6,29.18,South,188,2.7,2.7,100,0.00,,,0.00,VWS V13.01,2013-10-08 09:55:00,
2013-10-08 04:56:00,48.6,48.6,29.18,South,188,3.1,3.1,100,0.00,,,0.00,VWS V13.01,2013-10-08 09:56:00,
2013-10-08 04:58:00,48.6,48.6,29.18,South,188,2.7,2.7,100,0.00,,,0.00,VWS V13.01,2013-10-08 09:58:00,
2013-10-08 04:59:00,48.6,48.6,29.18,South,188,4.0,4.0,100,0.00,,,0.00,VWS V13.01,2013-10-08 09:59:00,
2013-10-08 05:00:00,48.6,48.6,29.18,South,188,4.0,4.0,100,0.00,,,0.00,VWS V13.01,2013-10-08 10:00:00,
2013-10-08 05:02:00,48.6,48.6,29.18,South,188,3.6,3.6,100,0.00,,,0.00,VWS V13.01,2013-10-08 10:02:00,
2013-10-08 05:03:00,48.6,48.6,29.18,South,188,3.1,3.1,100,0.00,,,0.00,VWS V13.01,2013-10-08 10:03:00,
2013-10-08 05:04:00,48.6,48.6,29.18,South,188,3.1,3.1,100,0.00,,,0.00,VWS V13.01,2013-10-08 10:04:00,
2013-10-08 05:05:00,48.6,48.6,29.18,South,188,4.0,4.0,100,0.00,,,0.00,VWS V13.01,2013-10-08 10:05:00,
2013-10-08 05:07:00,48.4,48.4,29.18,South,188,3.6,3.6,100,0.00,,,0.00,VWS V13.01,2013-10-08 10:07:00,
2013-10-08 05:08:00,48.4,48.4,29.18,South,188,4.0,4.0,100,0.00,,,0.00,VWS V13.01,2013-10-08 10:08:00,
2013-10-08 05:09:00,48.2,48.2,29.18,South,188,4.5,4.5,100,0.00,,,0.00,VWS V13.01,2013-10-08 10:09:00,
2013-10-08 05:10:00,48.2,48.2,29.18,South,188,4.0,4.0,100,0.00,,,0.00,VWS V13.01,2013-10-08 10:10:00,
2013-10-08 05:11:00,48.2,48.2,29.18,South,185,4.0,4.0,100,0.00,,,0.00,VWS V13.01,2013-10-08 10:11:00,
2013-10-08 05:12:00,48.2,48.2,29.18,South,185,4.0,4.0,100,0.00,,,0.00,VWS V13.01,2013-10-08 10:12:00,
2013-10-08 05:13:00,48.2,48.2,29.18,South,185,3.1,3.1,100,0.00,,,0.00,VWS V13.01,2013-10-08 10:13:00,
2013-10-08 05:14:00,48.2,48.2,29.18,South,185,4.5,4.5,100,0.00,,,0.00,VWS V13.01,2013-10-08 10:14:00,
2013-10-08 05:15:00,48.0,48.0,29.18,South,185,4.0,4.0,100,0.00,,,0.00,VWS V13.01,2013-10-08 10:15:00,
2013-10-08 05:16:00,48.0,48.0,29.18,South,185,3.6,3.6,100,0.00,,,0.00,VWS V13.01,2013-10-08 10:16:00,
2013-10-08 05:17:00,48.0,48.0,29.18,South,185,4.0,4.0,100,0.00,,,0.00,VWS V13.01,2013-10-08 10:17:00,
2013-10-08 05:18:00,48.0,48.0,29.18,South,185,4.0,4.0,100,0.00,,,0.00,VWS V13.01,2013-10-08 10:18:00,
2013-10-08 05:19:00,48.0,48.0,29.18,South,185,4.0,4.0,100,0.00,,,0.00,VWS V13.01,2013-10-08 10:19:00,
2013-10-08 05:20:00,48.0,48.0,29.18,South,185,4.9,4.9,100,0.00,,,0.00,VWS V13.01,2013-10-08 10:20:00,
2013-10-08 05:21:00,47.8,47.8,29.18,South,185,3.6,3.6,100,0.00,,,0.00,VWS V13.01,2013-10-08 10:21:00,
2013-10-08 05:22:00,47.8,47.8,29.18,South,185,3.1,3.1,100,0.00,,,0.00,VWS V13.01,2013-10-08 10:22:00,
2013-10-08 05:23:00,47.8,47.8,29.18,South,185,3.1,3.1,100,0.00,,,0.00,VWS V13.01,2013-10-08 10:23:00,
2013-10-08 05:24:00,47.8,47.8,29.18,South,185,3.6,3.6,100,0.00,,,0.00,VWS V13.01,2013-10-08 10:24:00,
2013-10-08 05:25:00,47.7,47.7,29.18,South,185,3.6,3.6,100,0.00,,,0.00,VWS V13.01,2013-10-08 10:25:00,
2013-10-08 05:26:00,47.7,47.7,29.18,South,185,3.1,3.1,100,0.00,,,0.00,VWS V13.01,2013-10-08 10:26:00,
2013-10-08 05:27:00,47.5,47.5,29.18,South,185,2.7,2.7,100,0.00,,,0.00,VWS V13.01,2013-10-08 10:27:00,
2013-10-08 05:28:00,47.5,47.5,29.18,South,185,4.0,4.0,100,0.00,,,0.00,VWS V13.01,2013-10-08 10:28:00,
2013-10-08 05:29:00,47.5,47.5,29.18,South,185,3.1,3.1,100,0.00,,,0.00,VWS V13.01,2013-10-08 10:29:00,
2013-10-08 05:30:00,47.5,47.5,29.18,South,185,3.6,3.6,100,0.00,,,0.00,VWS V13.01,2013-10-08 10:30:00,
2013-10-08 05:31:00,47.5,47.5,29.18,South,185,3.6,3.6,100,0.00,,,0.00,VWS V13.01,2013-10-08 10:31:00,
2013-10-08 05:32:00,47.5,47.5,29.18,South,185,4.0,4.0,100,0.00,,,0.00,VWS V13.01,2013-10-08 10:32:00,
2013-10-08 05:33:00,47.5,47.5,29.18,South,185,3.1,3.1,100,0.00,,,0.00,VWS V13.01,2013-10-08 10:33:00,
2013-10-08 05:34:00,47.5,47.5,29.18,South,185,4.0,4.0,100,0.00,,,0.00,VWS V13.01,2013-10-08 10:34:00,
2013-10-08 05:35:00,47.5,47.5,29.18,South,185,3.1,3.1,100,0.00,,,0.00,VWS V13.01,2013-10-08 10:35:00,
2013-10-08 05:36:00,47.7,47.7,29.18,South,185,4.0,4.0,100,0.00,,,0.00,VWS V13.01,2013-10-08 10:36:00,
2013-10-08 05:37:00,47.5,47.5,29.18,South,185,3.1,3.1,100,0.00,,,0.00,VWS V13.01,2013-10-08 10:37:00,
2013-10-08 05:39:00,47.5,47.5,29.18,South,185,2.7,2.7,100,0.00,,,0.00,VWS V13.01,2013-10-08 10:39:00,
2013-10-08 05:40:00,47.7,47.7,29.18,SSW,194,4.9,4.9,100,0.00,,,0.00,VWS V13.01,2013-10-08 10:40:00,
2013-10-08 05:41:00,47.7,47.7,29.18,SSW,193,3.1,3.1,100,0.00,,,0.00,VWS V13.01,2013-10-08 10:41:00,
2013-10-08 05:42:00,47.7,47.7,29.18,South,189,4.9,4.9,100,0.00,,,0.00,VWS V13.01,2013-10-08 10:42:00,
2013-10-08 05:44:00,47.7,47.7,29.18,South,187,4.0,4.0,100,0.00,,,0.00,VWS V13.01,2013-10-08 10:44:00,
2013-10-08 05:45:00,47.7,47.7,29.18,South,187,4.9,4.9,100,0.00,,,0.00,VWS V13.01,2013-10-08 10:45:00,
2013-10-08 05:46:00,47.7,47.7,29.18,South,187,3.6,3.6,100,0.00,,,0.00,VWS V13.01,2013-10-08 10:46:00,
2013-10-08 05:48:00,47.5,47.5,29.18,South,187,3.6,3.6,100,0.00,,,0.00,VWS V13.01,2013-10-08 10:48:00,
2013-10-08 05:49:00,47.5,47.5,29.18,South,187,4.0,4.0,100,0.00,,,0.00,VWS V13.01,2013-10-08 10:49:00,
2013-10-08 05:50:00,47.5,47.5,29.18,South,187,3.6,3.6,100,0.00,,,0.00,VWS V13.01,2013-10-08 10:50:00,
2013-10-08 05:51:00,47.5,47.5,29.18,South,190,3.1,3.1,100,0.00,,,0.00,VWS V13.01,2013-10-08 10:51:00,
2013-10-08 05:52:00,47.5,47.5,29.18,South,190,3.6,3.6,100,0.00,,,0.00,VWS V13.01,2013-10-08 10:52:00,
2013-10-08 05:53:00,47.5,47.5,29.18,South,190,3.6,3.6,100,0.00,,,0.00,VWS V13.01,2013-10-08 10:53:00,
2013-10-08 05:54:00,47.5,47.5,29.18,South,187,4.0,4.0,100,0.00,,,0.00,VWS V13.01,2013-10-08 10:54:00,
2013-10-08 05:55:00,47.7,47.7,29.18,SSW,193,3.6,3.6,100,0.00,,,0.00,VWS V13.01,2013-10-08 10:55:00,
2013-10-08 05:56:00,47.5,47.5,29.18,South,190,3.6,3.6,100,0.00,,,0.00,VWS V13.01,2013-10-08 10:56:00,
2013-10-08 05:57:00,47.7,47.7,29.18,South,190,4.0,4.0,100,0.00,,,0.00,VWS V13.01,2013-10-08 10:57:00,
2013-10-08 05:59:00,47.8,47.8,29.18,South,191,3.6,3.6,100,0.00,,,0.00,VWS V13.01,2013-10-08 10:59:00,
2013-10-08 06:00:00,47.8,47.8,29.18,South,191,5.8,5.8,100,0.00,,,0.00,VWS V13.01,2013-10-08 11:00:00,
2013-10-08 06:02:00,48.0,48.0,29.18,South,189,4.0,4.0,100,0.00,,,0.00,VWS V13.01,2013-10-08 11:02:00,
2013-10-08 06:03:00,48.0,48.0,29.18,South,189,3.6,3.6,100,0.00,,,0.00,VWS V13.01,2013-10-08 11:03:00,
2013-10-08 06:04:00,48.0,48.0,29.18,South,189,4.9,4.9,100,0.00,,,0.00,VWS V13.01,2013-10-08 11:04:00,
2013-10-08 06:05:00,47.8,47.8,29.18,South,189,4.0,4.0,100,0.00,,,0.00,VWS V13.01,2013-10-08 11:05:00,
2013-10-08 06:07:00,47.8,47.8,29.18,South,188,4.9,4.9,100,0.00,,,0.00,VWS V13.01,2013-10-08 11:07:00,
2013-10-08 06:08:00,47.8,47.8,29.18,South,188,4.0,4.0,100,0.00,,,0.00,VWS V13.01,2013-10-08 11:08:00,
2013-10-08 06:09:00,47.8,47.8,29.18,South,188,3.6,3.6,100,0.00,,,0.00,VWS V13.01,2013-10-08 11:09:00,
2013-10-08 06:10:00,47.7,47.7,29.18,South,188,4.0,4.0,100,0.00,,,0.00,VWS V13.01,2013-10-08 11:10:00,
2013-10-08 06:12:00,47.7,47.7,29.18,South,188,4.5,4.5,100,0.00,,,0.00,VWS V13.01,2013-10-08 11:12:00,
2013-10-08 06:13:00,47.7,47.7,29.18,South,188,3.6,3.6,100,0.00,,,0.00,VWS V13.01,2013-10-08 11:13:00,
2013-10-08 06:15:00,47.8,47.8,29.18,South,189,4.0,4.0,100,0.00,,,0.00,VWS V13.01,2013-10-08 11:15:00,
2013-10-08 06:17:00,48.0,48.0,29.18,South,189,4.0,4.0,100,0.00,,,0.00,VWS V13.01,2013-10-08 11:17:00,
2013-10-08 06:18:00,48.0,48.0,29.18,South,189,4.0,4.0,100,0.00,,,0.00,VWS V13.01,2013-10-08 11:18:00,
2013-10-08 06:20:00,47.8,47.8,29.18,South,190,4.0,4.0,100,0.00,,,0.00,VWS V13.01,2013-10-08 11:20:00,
2013-10-08 06:21:00,47.8,47.8,29.18,South,190,5.4,5.4,100,0.00,,,0.00,VWS V13.01,2013-10-08 11:21:00,
2013-10-08 06:22:00,47.7,47.7,29.18,South,190,3.6,3.6,100,0.00,,,0.00,VWS V13.01,2013-10-08 11:22:00,
2013-10-08 06:23:00,47.7,47.7,29.18,South,190,4.9,4.9,100,0.00,,,0.00,VWS V13.01,2013-10-08 11:23:00,
2013-10-08 06:25:00,47.7,47.7,29.15,South,190,4.0,4.0,100,0.00,,,0.00,VWS V13.01,2013-10-08 11:25:00,
2013-10-08 06:26:00,47.7,47.7,29.15,South,190,4.5,4.5,100,0.00,,,0.00,VWS V13.01,2013-10-08 11:26:00,
2013-10-08 06:27:00,47.7,47.7,29.15,South,190,5.4,5.4,100,0.00,,,0.00,VWS V13.01,2013-10-08 11:27:00,
2013-10-08 06:28:00,47.7,47.7,29.15,South,190,4.0,4.0,100,0.00,,,0.00,VWS V13.01,2013-10-08 11:28:00,
2013-10-08 06:30:00,47.5,47.5,29.15,South,190,2.7,2.7,100,0.00,,,0.00,VWS V13.01,2013-10-08 11:30:00,
2013-10-08 06:31:00,47.7,47.7,29.15,South,190,4.0,4.0,100,0.00,,,0.00,VWS V13.01,2013-10-08 11:31:00,
2013-10-08 06:32:00,47.5,47.5,29.15,South,190,4.9,4.9,100,0.00,,,0.00,VWS V13.01,2013-10-08 11:32:00,
2013-10-08 06:33:00,47.5,47.5,29.15,South,190,4.0,4.0,100,0.00,,,0.00,VWS V13.01,2013-10-08 11:33:00,
2013-10-08 06:35:00,47.7,47.7,29.15,South,190,4.9,4.9,100,0.00,,,0.00,VWS V13.01,2013-10-08 11:35:00,
2013-10-08 06:36:00,47.5,47.5,29.15,South,189,3.6,3.6,100,0.00,,,0.00,VWS V13.01,2013-10-08 11:36:00,
2013-10-08 06:37:00,47.5,47.5,29.15,South,189,3.6,3.6,100,0.00,,,0.00,VWS V13.01,2013-10-08 11:37:00,
2013-10-08 06:38:00,47.5,47.5,29.15,South,189,3.1,3.1,100,0.00,,,0.00,VWS V13.01,2013-10-08 11:38:00,
2013-10-08 06:40:00,47.5,47.5,29.15,South,189,3.6,3.6,100,0.00,,,0.00,VWS V13.01,2013-10-08 11:40:00,
2013-10-08 06:41:00,47.5,47.5,29.15,South,189,3.6,3.6,100,0.00,,,0.00,VWS V13.01,2013-10-08 11:41:00,
2013-10-08 06:42:00,47.5,47.5,29.15,South,189,4.9,4.9,100,0.00,,,0.00,VWS V13.01,2013-10-08 11:42:00,
2013-10-08 06:43:00,47.5,47.5,29.15,South,189,3.6,3.6,100,0.00,,,0.00,VWS V13.01,2013-10-08 11:43:00,
2013-10-08 06:45:00,47.5,47.5,29.15,South,189,4.9,4.9,100,0.00,,,0.00,VWS V13.01,2013-10-08 11:45:00,
2013-10-08 06:46:00,47.5,47.5,29.15,South,189,3.6,3.6,100,0.00,,,0.00,VWS V13.01,2013-10-08 11:46:00,
2013-10-08 06:47:00,47.7,47.7,29.15,South,189,3.6,3.6,100,0.00,,,0.00,VWS V13.01,2013-10-08 11:47:00,
2013-10-08 06:48:00,47.7,47.7,29.15,South,189,3.1,3.1,100,0.00,,,0.00,VWS V13.01,2013-10-08 11:48:00,
2013-10-08 06:50:00,47.5,47.5,29.15,South,189,3.1,3.1,100,0.00,,,0.00,VWS V13.01,2013-10-08 11:50:00,
2013-10-08 06:52:00,47.5,47.5,29.15,South,188,4.0,4.0,100,0.00,,,0.00,VWS V13.01,2013-10-08 11:52:00,
2013-10-08 06:53:00,47.5,47.5,29.15,South,188,3.6,3.6,100,0.00,,,0.00,VWS V13.01,2013-10-08 11:53:00,
2013-10-08 06:55:00,47.7,47.7,29.18,South,188,4.0,4.0,100,0.00,,,0.00,VWS V13.01,2013-10-08 11:55:00,
2013-10-08 06:57:00,47.7,47.7,29.18,South,188,4.0,4.0,100,0.00,,,0.00,VWS V13.01,2013-10-08 11:57:00,
2013-10-08 06:58:00,47.7,47.7,29.18,South,188,3.6,3.6,100,0.00,,,0.00,VWS V13.01,2013-10-08 11:58:00,
2013-10-08 06:59:00,47.5,47.5,29.18,South,188,3.1,3.1,100,0.00,,,0.00,VWS V13.01,2013-10-08 11:59:00,
2013-10-08 07:00:00,47.5,47.5,29.18,South,188,3.6,3.6,100,0.00,,,0.00,VWS V13.01,2013-10-08 12:00:00,
2013-10-08 07:01:00,47.5,47.5,29.18,South,188,3.6,3.6,100,0.00,,,0.00,VWS V13.01,2013-10-08 12:01:00,
2013-10-08 07:02:00,47.5,47.5,29.18,South,188,4.0,4.0,100,0.00,,,0.00,VWS V13.01,2013-10-08 12:02:00,
2013-10-08 07:03:00,47.5,47.5,29.18,South,188,4.5,4.5,100,0.00,,,0.00,VWS V13.01,2013-10-08 12:03:00,
2013-10-08 07:04:00,47.7,47.7,29.18,South,188,4.0,4.0,100,0.00,,,0.00,VWS V13.01,2013-10-08 12:04:00,
2013-10-08 07:05:00,47.8,47.8,29.18,South,188,3.6,3.6,100,0.00,,,0.00,VWS V13.01,2013-10-08 12:05:00,
2013-10-08 07:06:00,47.8,47.8,29.18,South,188,3.1,3.1,100,0.00,,,0.00,VWS V13.01,2013-10-08 12:06:00,
2013-10-08 07:07:00,47.7,47.7,29.18,South,188,3.6,3.6,100,0.00,,,0.00,VWS V13.01,2013-10-08 12:07:00,
2013-10-08 07:08:00,47.7,47.7,29.18,South,188,4.9,4.9,100,0.00,,,0.00,VWS V13.01,2013-10-08 12:08:00,
2013-10-08 07:09:00,47.8,47.8,29.18,South,188,4.0,4.0,100,0.00,,,0.00,VWS V13.01,2013-10-08 12:09:00,
2013-10-08 07:10:00,47.7,47.7,29.18,South,188,4.9,4.9,100,0.00,,,0.00,VWS V13.01,2013-10-08 12:10:00,
2013-10-08 07:11:00,47.7,47.7,29.18,South,188,4.9,4.9,100,0.00,,,0.00,VWS V13.01,2013-10-08 12:11:00,
2013-10-08 07:12:00,47.7,47.7,29.18,South,188,4.9,4.9,100,0.00,,,0.00,VWS V13.01,2013-10-08 12:12:00,
2013-10-08 07:14:00,47.7,47.7,29.18,South,188,4.9,4.9,100,0.00,,,0.00,VWS V13.01,2013-10-08 12:14:00,
2013-10-08 07:15:00,47.7,47.7,29.18,South,187,4.9,4.9,100,0.00,,,0.00,VWS V13.01,2013-10-08 12:15:00,
2013-10-08 07:16:00,47.7,47.7,29.18,South,173,4.9,4.9,100,0.00,,,0.00,VWS V13.01,2013-10-08 12:16:00,
2013-10-08 07:17:00,47.7,47.7,29.18,South,173,4.5,4.5,100,0.00,,,0.00,VWS V13.01,2013-10-08 12:17:00,
2013-10-08 07:19:00,47.7,47.7,29.18,South,185,3.6,3.6,100,0.00,,,0.00,VWS V13.01,2013-10-08 12:19:00,
2013-10-08 07:21:00,47.7,47.7,29.18,South,185,4.0,4.0,100,0.00,,,0.00,VWS V13.01,2013-10-08 12:21:00,
2013-10-08 07:22:00,47.8,47.8,29.18,South,185,5.8,5.8,100,0.00,,,0.00,VWS V13.01,2013-10-08 12:22:00,
2013-10-08 07:24:00,47.8,47.8,29.18,South,185,4.9,4.9,100,0.00,,,0.00,VWS V13.01,2013-10-08 12:24:00,
2013-10-08 07:26:00,48.4,48.4,29.15,South,184,3.6,3.6,100,0.00,,,0.00,VWS V13.01,2013-10-08 12:26:00,
2013-10-08 07:27:00,48.6,48.6,29.15,South,189,4.9,4.9,100,0.00,,,0.00,VWS V13.01,2013-10-08 12:27:00,
2013-10-08 07:29:00,48.6,48.6,29.15,South,183,4.0,4.0,100,0.00,,,0.00,VWS V13.01,2013-10-08 12:29:00,
2013-10-08 07:30:00,48.6,48.6,29.15,South,183,4.9,4.9,100,0.00,,,0.00,VWS V13.01,2013-10-08 12:30:00,
2013-10-08 07:31:00,48.7,48.7,29.15,South,183,4.9,4.9,100,0.00,,,0.00,VWS V13.01,2013-10-08 12:31:00,
2013-10-08 07:32:00,49.3,49.3,29.15,South,187,4.0,4.0,100,0.00,,,0.00,VWS V13.01,2013-10-08 12:32:00,
2013-10-08 07:34:00,49.6,49.6,29.15,South,187,4.0,4.0,100,0.00,,,0.00,VWS V13.01,2013-10-08 12:34:00,
2013-10-08 07:35:00,49.8,49.8,29.15,South,183,5.4,5.4,100,0.00,,,0.00,VWS V13.01,2013-10-08 12:35:00,
2013-10-08 07:36:00,50.0,50.0,29.15,South,188,4.9,4.9,100,0.00,,,0.00,VWS V13.01,2013-10-08 12:36:00,
2013-10-08 07:37:00,50.2,50.2,29.15,South,188,4.0,4.0,100,0.00,,,0.00,VWS V13.01,2013-10-08 12:37:00,
2013-10-08 07:39:00,50.4,50.4,29.15,South,191,4.9,4.9,100,0.00,,,0.00,VWS V13.01,2013-10-08 12:39:00,
2013-10-08 07:40:00,50.4,50.4,29.18,South,190,4.0,4.0,100,0.00,,,0.00,VWS V13.01,2013-10-08 12:40:00,
2013-10-08 07:41:00,50.4,50.4,29.18,South,189,4.0,4.0,100,0.00,,,0.00,VWS V13.01,2013-10-08 12:41:00,
2013-10-08 07:42:00,50.2,50.2,29.18,South,179,5.4,5.4,100,0.00,,,0.00,VWS V13.01,2013-10-08 12:42:00,
2013-10-08 07:44:00,49.8,49.8,29.18,South,185,5.4,5.4,100,0.00,,,0.00,VWS V13.01,2013-10-08 12:44:00,
2013-10-08 07:45:00,49.8,49.8,29.18,South,185,5.8,5.8,100,0.00,,,0.00,VWS V13.01,2013-10-08 12:45:00,
2013-10-08 07:46:00,49.8,49.8,29.18,South,190,6.3,6.3,100,0.00,,,0.00,VWS V13.01,2013-10-08 12:46:00,
2013-10-08 07:47:00,50.0,50.0,29.18,South,187,4.9,4.9,100,0.00,,,0.00,VWS V13.01,2013-10-08 12:47:00,
2013-10-08 07:49:00,50.4,50.4,29.18,SSW,192,5.4,5.4,100,0.00,,,0.00,VWS V13.01,2013-10-08 12:49:00,
2013-10-08 07:50:00,50.5,50.5,29.18,South,183,5.4,5.4,100,0.00,,,0.00,VWS V13.01,2013-10-08 12:50:00,
2013-10-08 07:51:00,50.5,50.5,29.18,South,182,5.4,5.4,100,0.00,,,0.00,VWS V13.01,2013-10-08 12:51:00,
2013-10-08 07:52:00,50.4,50.4,29.18,South,171,4.9,4.9,100,0.00,,,0.00,VWS V13.01,2013-10-08 12:52:00,
2013-10-08 07:53:00,50.7,50.7,29.18,South,177,4.9,4.9,100,0.00,,,0.00,VWS V13.01,2013-10-08 12:53:00,
2013-10-08 07:54:00,51.1,51.1,29.18,South,179,3.1,3.1,100,0.00,,,0.00,VWS V13.01,2013-10-08 12:54:00,
2013-10-08 07:55:00,51.1,51.1,29.18,SSW,197,5.8,5.8,100,0.00,,,0.00,VWS V13.01,2013-10-08 12:55:00,
2013-10-08 07:56:00,50.9,50.9,29.18,South,180,6.3,6.3,100,0.00,,,0.00,VWS V13.01,2013-10-08 12:56:00,
2013-10-08 07:57:00,50.9,50.9,29.18,South,179,6.3,6.3,100,0.00,,,0.00,VWS V13.01,2013-10-08 12:57:00,
2013-10-08 07:58:00,50.7,50.7,29.18,South,184,5.8,5.8,100,0.00,,,0.00,VWS V13.01,2013-10-08 12:58:00,
2013-10-08 07:59:00,50.5,50.5,29.18,South,182,5.4,5.4,100,0.00,,,0.00,VWS V13.01,2013-10-08 12:59:00,
2013-10-08 08:01:00,50.2,50.2,29.18,South,179,5.4,5.4,100,0.00,,,0.00,VWS V13.01,2013-10-08 13:01:00,
2013-10-08 08:02:00,50.2,50.2,29.18,South,180,5.4,5.4,100,0.00,,,0.00,VWS V13.01,2013-10-08 13:02:00,
2013-10-08 08:04:00,50.2,50.2,29.18,South,179,6.7,6.7,100,0.00,,,0.00,VWS V13.01,2013-10-08 13:04:00,
2013-10-08 08:06:00,50.5,50.5,29.18,South,181,6.3,6.3,100,0.00,,,0.00,VWS V13.01,2013-10-08 13:06:00,
2013-10-08 08:07:00,50.7,50.7,29.18,South,184,7.6,7.6,100,0.00,,,0.00,VWS V13.01,2013-10-08 13:07:00,
2013-10-08 08:09:00,51.1,51.1,29.18,South,181,5.8,5.8,100,0.00,,,0.00,VWS V13.01,2013-10-08 13:09:00,
2013-10-08 08:11:00,51.4,51.4,29.18,SSW,196,5.4,5.4,100,0.00,,,0.00,VWS V13.01,2013-10-08 13:11:00,
2013-10-08 08:12:00,51.4,51.4,29.18,South,189,5.8,5.8,100,0.00,,,0.00,VWS V13.01,2013-10-08 13:12:00,
2013-10-08 08:14:00,51.3,51.3,29.18,South,182,5.8,5.8,100,0.00,,,0.00,VWS V13.01,2013-10-08 13:14:00,
2013-10-08 08:16:00,51.3,51.3,29.18,SSW,198,6.3,6.3,100,0.00,,,0.00,VWS V13.01,2013-10-08 13:16:00,
2013-10-08 08:17:00,51.3,51.3,29.18,South,185,5.8,5.8,100,0.00,,,0.00,VWS V13.01,2013-10-08 13:17:00,
2013-10-08 08:19:00,51.3,51.3,29.18,SSW,192,6.3,6.3,100,0.00,,,0.00,VWS V13.01,2013-10-08 13:19:00,
2013-10-08 08:20:00,51.4,51.4,29.18,SSW,201,6.3,6.3,100,0.00,,,0.00,VWS V13.01,2013-10-08 13:20:00,
2013-10-08 08:21:00,51.6,51.6,29.18,South,177,7.2,7.2,100,0.00,,,0.00,VWS V13.01,2013-10-08 13:21:00,
2013-10-08 08:22:00,51.6,51.6,29.18,South,173,7.6,7.6,100,0.00,,,0.00,VWS V13.01,2013-10-08 13:22:00,
2013-10-08 08:24:00,51.8,51.8,29.18,South,180,5.8,5.8,100,0.00,,,0.00,VWS V13.01,2013-10-08 13:24:00,
2013-10-08 08:25:00,51.8,51.8,29.18,South,181,5.8,5.8,100,0.00,,,0.00,VWS V13.01,2013-10-08 13:25:00,
2013-10-08 08:26:00,52.0,52.0,29.18,South,183,7.6,7.6,100,0.00,,,0.00,VWS V13.01,2013-10-08 13:26:00,
2013-10-08 08:27:00,52.0,52.0,29.18,South,175,5.8,5.8,100,0.00,,,0.00,VWS V13.01,2013-10-08 13:27:00,
2013-10-08 08:29:00,52.2,52.2,29.18,South,190,7.6,7.6,100,0.00,,,0.00,VWS V13.01,2013-10-08 13:29:00,
2013-10-08 08:30:00,52.2,52.2,29.18,South,184,6.3,6.3,100,0.00,,,0.00,VWS V13.01,2013-10-08 13:30:00,
2013-10-08 08:31:00,52.3,52.3,29.18,South,189,7.6,7.6,100,0.00,,,0.00,VWS V13.01,2013-10-08 13:31:00,
2013-10-08 08:33:00,52.5,52.5,29.18,SSW,198,6.3,6.3,100,0.00,,,0.00,VWS V13.01,2013-10-08 13:33:00,
2013-10-08 08:34:00,52.5,52.5,29.18,SSW,211,7.6,7.6,100,0.00,,,0.00,VWS V13.01,2013-10-08 13:34:00,
2013-10-08 08:35:00,52.7,52.7,29.18,SSW,202,8.3,8.3,100,0.00,,,0.00,VWS V13.01,2013-10-08 13:35:00,
2013-10-08 08:36:00,52.7,52.7,29.18,South,184,8.1,8.1,100,0.00,,,0.00,VWS V13.01,2013-10-08 13:36:00,
2013-10-08 08:37:00,52.9,52.9,29.18,South,183,8.3,8.3,100,0.00,,,0.00,VWS V13.01,2013-10-08 13:37:00,
2013-10-08 08:38:00,52.9,52.9,29.18,SSW,194,7.6,7.6,100,0.00,,,0.00,VWS V13.01,2013-10-08 13:38:00,
2013-10-08 08:39:00,53.1,53.1,29.18,South,184,5.8,5.8,100,0.00,,,0.00,VWS V13.01,2013-10-08 13:39:00,
2013-10-08 08:40:00,53.1,53.1,29.18,South,178,6.3,6.3,100,0.00,,,0.00,VWS V13.01,2013-10-08 13:40:00,
2013-10-08 08:41:00,53.2,53.2,29.18,South,178,7.2,7.2,100,0.00,,,0.00,VWS V13.01,2013-10-08 13:41:00,
2013-10-08 08:42:00,53.6,53.6,29.18,South,177,5.4,5.4,100,0.00,,,0.00,VWS V13.01,2013-10-08 13:42:00,
2013-10-08 08:43:00,54.0,54.0,29.18,South,186,5.8,5.8,100,0.00,,,0.00,VWS V13.01,2013-10-08 13:43:00,
2013-10-08 08:44:00,55.4,55.4,29.18,South,175,6.3,6.3,100,0.00,,,0.00,VWS V13.01,2013-10-08 13:44:00,
2013-10-08 08:45:00,55.9,55.9,29.18,SSW,200,5.8,5.8,100,0.00,,,0.00,VWS V13.01,2013-10-08 13:45:00,
2013-10-08 08:46:00,55.9,55.9,29.18,South,190,8.3,8.3,100,0.00,,,0.00,VWS V13.01,2013-10-08 13:46:00,
2013-10-08 08:47:00,55.4,55.4,29.18,South,180,8.1,8.1,100,0.00,,,0.00,VWS V13.01,2013-10-08 13:47:00,
2013-10-08 08:48:00,55.4,55.4,29.18,South,187,6.3,6.3,100,0.00,,,0.00,VWS V13.01,2013-10-08 13:48:00,
2013-10-08 08:49:00,55.4,55.4,29.18,South,176,6.3,6.3,100,0.00,,,0.00,VWS V13.01,2013-10-08 13:49:00,
2013-10-08 08:50:00,55.4,55.4,29.18,South,183,6.3,6.3,100,0.00,,,0.00,VWS V13.01,2013-10-08 13:50:00,
2013-10-08 08:51:00,55.0,55.0,29.18,South,187,7.6,7.6,100,0.00,,,0.00,VWS V13.01,2013-10-08 13:51:00,
2013-10-08 08:52:00,55.0,55.0,29.18,SSW,200,6.3,6.3,100,0.00,,,0.00,VWS V13.01,2013-10-08 13:52:00,
2013-10-08 08:53:00,55.0,55.0,29.18,South,177,8.3,8.3,100,0.00,,,0.00,VWS V13.01,2013-10-08 13:53:00,
2013-10-08 08:55:00,55.0,55.0,29.18,South,184,6.3,6.3,100,0.00,,,0.00,VWS V13.01,2013-10-08 13:55:00,
2013-10-08 08:56:00,55.4,55.4,29.18,South,182,6.3,6.3,100,0.00,,,0.00,VWS V13.01,2013-10-08 13:56:00,
2013-10-08 08:57:00,55.6,55.6,29.18,SSW,192,5.8,5.8,100,0.00,,,0.00,VWS V13.01,2013-10-08 13:57:00,
2013-10-08 08:58:00,55.8,55.8,29.18,South,187,5.4,5.4,100,0.00,,,0.00,VWS V13.01,2013-10-08 13:58:00,
2013-10-08 09:00:00,56.5,56.5,29.18,South,177,6.7,6.7,100,0.00,,,0.00,VWS V13.01,2013-10-08 14:00:00,
2013-10-08 09:02:00,58.5,55.8,29.18,South,175,5.8,5.8,91,0.00,,,0.00,VWS V13.01,2013-10-08 14:02:00,
2013-10-08 09:03:00,58.5,55.8,29.18,South,176,6.3,6.3,91,0.00,,,0.00,VWS V13.01,2013-10-08 14:03:00,
2013-10-08 09:05:00,57.9,55.3,29.18,South,176,6.7,6.7,91,0.00,,,0.00,VWS V13.01,2013-10-08 14:05:00,
2013-10-08 09:07:00,59.5,53.0,29.18,South,176,6.7,6.7,79,0.00,,,0.00,VWS V13.01,2013-10-08 14:07:00,
2013-10-08 09:08:00,60.1,53.6,29.18,South,178,6.7,6.7,79,0.00,,,0.00,VWS V13.01,2013-10-08 14:08:00,
2013-10-08 09:10:00,59.2,52.7,29.18,SSW,199,6.3,6.3,79,0.00,,,0.00,VWS V13.01,2013-10-08 14:10:00,
2013-10-08 09:12:00,59.5,53.0,29.18,South,189,8.7,8.7,79,0.00,,,0.00,VWS V13.01,2013-10-08 14:12:00,
2013-10-08 09:13:00,59.7,53.2,29.18,South,182,6.3,6.3,79,0.00,,,0.00,VWS V13.01,2013-10-08 14:13:00,
2013-10-08 09:15:00,58.8,52.3,29.18,South,173,9.2,9.2,79,0.00,,,0.00,VWS V13.01,2013-10-08 14:15:00,
2013-10-08 09:17:00,59.7,53.2,29.18,South,187,8.7,8.7,79,0.00,,,0.00,VWS V13.01,2013-10-08 14:17:00,
2013-10-08 09:18:00,60.1,53.6,29.18,South,170,10.5,10.5,79,0.00,,,0.00,VWS V13.01,2013-10-08 14:18:00,
2013-10-08 09:20:00,60.8,52.1,29.18,South,179,6.3,6.3,73,0.00,,,0.00,VWS V13.01,2013-10-08 14:20:00,
2013-10-08 09:22:00,59.7,53.2,29.18,SSW,192,6.3,6.3,79,0.00,,,0.00,VWS V13.01,2013-10-08 14:22:00,
2013-10-08 09:23:00,59.5,53.0,29.18,South,188,8.1,8.1,79,0.00,,,0.00,VWS V13.01,2013-10-08 14:23:00,
2013-10-08 09:25:00,58.6,52.2,29.18,South,180,8.3,8.3,79,0.00,,,0.00,VWS V13.01,2013-10-08 14:25:00,
2013-10-08 09:27:00,59.7,53.2,29.18,South,177,8.3,8.3,79,0.00,,,0.00,VWS V13.01,2013-10-08 14:27:00,
2013-10-08 09:28:00,59.7,53.2,29.18,South,176,7.6,7.6,79,0.00,,,0.00,VWS V13.01,2013-10-08 14:28:00,
2013-10-08 09:30:00,59.4,52.9,29.18,South,177,10.1,10.1,79,0.00,,,0.00,VWS V13.01,2013-10-08 14:30:00,
2013-10-08 09:32:00,59.9,53.4,29.18,South,182,5.4,5.4,79,0.00,,,0.00,VWS V13.01,2013-10-08 14:32:00,
2013-10-08 09:33:00,60.6,54.1,29.18,South,176,7.6,7.6,79,0.00,,,0.00,VWS V13.01,2013-10-08 14:33:00,
2013-10-08 09:35:00,60.4,53.9,29.18,SSW,194,8.7,8.7,79,0.00,,,0.00,VWS V13.01,2013-10-08 14:35:00,
2013-10-08 09:37:00,60.1,53.6,29.18,South,184,11.4,11.4,79,0.00,,,0.00,VWS V13.01,2013-10-08 14:37:00,
2013-10-08 09:38:00,59.7,53.2,29.18,South,184,11.0,11.0,79,0.00,,,0.00,VWS V13.01,2013-10-08 14:38:00,
2013-10-08 09:39:00,59.5,53.0,29.18,South,177,8.3,8.3,79,0.00,,,0.00,VWS V13.01,2013-10-08 14:39:00,
2013-10-08 09:40:00,59.5,53.0,29.18,SSW,198,7.6,7.6,79,0.00,,,0.00,VWS V13.01,2013-10-08 14:40:00,
2013-10-08 09:42:00,59.7,53.2,29.18,South,177,8.3,8.3,79,0.00,,,0.00,VWS V13.01,2013-10-08 14:42:00,
2013-10-08 09:43:00,59.7,53.2,29.18,South,181,8.7,8.7,79,0.00,,,0.00,VWS V13.01,2013-10-08 14:43:00,
2013-10-08 09:44:00,59.7,53.2,29.18,South,182,7.6,7.6,79,0.00,,,0.00,VWS V13.01,2013-10-08 14:44:00,
2013-10-08 09:45:00,60.1,53.6,29.18,South,183,10.1,10.1,79,0.00,,,0.00,VWS V13.01,2013-10-08 14:45:00,
2013-10-08 09:47:00,60.1,53.6,29.18,South,182,10.5,10.5,79,0.00,,,0.00,VWS V13.01,2013-10-08 14:47:00,
2013-10-08 09:48:00,60.1,53.6,29.18,South,179,11.0,11.0,79,0.00,,,0.00,VWS V13.01,2013-10-08 14:48:00,
2013-10-08 09:49:00,60.3,46.8,29.18,South,178,10.1,10.1,61,0.00,,,0.00,VWS V13.01,2013-10-08 14:49:00,
2013-10-08 09:50:00,60.4,53.9,29.18,SSW,192,8.3,8.3,79,0.00,,,0.00,VWS V13.01,2013-10-08 14:50:00,
2013-10-08 09:51:00,60.4,53.9,29.18,SSW,192,8.3,8.3,79,0.00,,,0.00,VWS V13.01,2013-10-08 14:51:00,
2013-10-08 09:52:00,60.8,52.1,29.18,South,183,8.7,8.7,73,0.00,,,0.00,VWS V13.01,2013-10-08 14:52:00,
2013-10-08 09:53:00,60.8,52.1,29.18,South,185,5.8,5.8,73,0.00,,,0.00,VWS V13.01,2013-10-08 14:53:00,
2013-10-08 09:54:00,61.0,47.5,29.18,South,182,10.5,10.5,61,0.00,,,0.00,VWS V13.01,2013-10-08 14:54:00,
2013-10-08 09:55:00,60.8,47.3,29.18,South,178,11.9,11.9,61,0.00,,,0.00,VWS V13.01,2013-10-08 14:55:00,
2013-10-08 09:56:00,60.8,47.3,29.18,South,176,11.0,11.0,61,0.00,,,0.00,VWS V13.01,2013-10-08 14:56:00,
2013-10-08 09:57:00,61.3,47.8,29.18,South,190,10.5,10.5,61,0.00,,,0.00,VWS V13.01,2013-10-08 14:57:00,
2013-10-08 09:58:00,61.5,48.0,29.18,SSW,198,10.5,10.5,61,0.00,,,0.00,VWS V13.01,2013-10-08 14:58:00,
2013-10-08 09:59:00,61.9,48.3,29.18,South,189,9.2,9.2,61,0.00,,,0.00,VWS V13.01,2013-10-08 14:59:00,
2013-10-08 10:00:00,61.9,48.3,29.18,South,169,8.7,8.7,61,0.00,,,0.00,VWS V13.01,2013-10-08 15:00:00,
2013-10-08 10:01:00,61.7,48.1,29.18,South,172,10.1,10.1,61,0.00,,,0.00,VWS V13.01,2013-10-08 15:01:00,
2013-10-08 10:03:00,61.7,48.1,29.18,SSW,194,15.0,15.0,61,0.00,,,0.00,VWS V13.01,2013-10-08 15:03:00,
2013-10-08 10:04:00,61.5,48.0,29.18,South,188,10.5,10.5,61,0.00,,,0.00,VWS V13.01,2013-10-08 15:04:00,
2013-10-08 10:05:00,61.9,48.3,29.18,SSW,204,7.6,7.6,61,0.00,,,0.00,VWS V13.01,2013-10-08 15:05:00,
2013-10-08 10:06:00,61.9,48.3,29.18,South,177,8.1,8.1,61,0.00,,,0.00,VWS V13.01,2013-10-08 15:06:00,
2013-10-08 10:08:00,62.2,48.6,29.18,SSW,202,11.0,11.0,61,0.00,,,0.00,VWS V13.01,2013-10-08 15:08:00,
2013-10-08 10:09:00,62.6,46.2,29.18,SSW,199,8.7,8.7,55,0.00,,,0.00,VWS V13.01,2013-10-08 15:09:00,
2013-10-08 10:10:00,62.6,46.2,29.18,South,175,8.3,8.3,55,0.00,,,0.00,VWS V13.01,2013-10-08 15:10:00,
2013-10-08 10:11:00,62.6,46.2,29.18,South,180,8.7,8.7,55,0.00,,,0.00,VWS V13.01,2013-10-08 15:11:00,
2013-10-08 10:13:00,63.0,46.6,29.18,South,169,10.5,10.5,55,0.00,,,0.00,VWS V13.01,2013-10-08 15:13:00,
2013-10-08 10:14:00,63.0,46.6,29.18,SSW,199,11.0,11.0,55,0.00,,,0.00,VWS V13.01,2013-10-08 15:14:00,
2013-10-08 10:15:00,63.0,46.6,29.18,South,178,9.6,9.6,55,0.00,,,0.00,VWS V13.01,2013-10-08 15:15:00,
2013-10-08 10:16:00,63.0,46.6,29.18,South,182,10.1,10.1,55,0.00,,,0.00,VWS V13.01,2013-10-08 15:16:00,
2013-10-08 10:18:00,63.0,46.6,29.18,South,176,8.3,8.3,55,0.00,,,0.00,VWS V13.01,2013-10-08 15:18:00,
2013-10-08 10:20:00,63.1,46.7,29.18,SSW,193,7.2,7.2,55,0.00,,,0.00,VWS V13.01,2013-10-08 15:20:00,
2013-10-08 10:21:00,63.3,46.9,29.18,South,176,8.3,8.3,55,0.00,,,0.00,VWS V13.01,2013-10-08 15:21:00,
2013-10-08 10:23:00,63.5,47.1,29.18,SSW,206,6.3,6.3,55,0.00,,,0.00,VWS V13.01,2013-10-08 15:23:00,
2013-10-08 10:25:00,63.9,47.4,29.18,South,177,8.3,8.3,55,0.00,,,0.00,VWS V13.01,2013-10-08 15:25:00,
2013-10-08 10:26:00,64.0,47.6,29.18,South,176,8.1,8.1,55,0.00,,,0.00,VWS V13.01,2013-10-08 15:26:00,
2013-10-08 10:28:00,64.0,47.6,29.18,South,175,11.9,11.9,55,0.00,,,0.00,VWS V13.01,2013-10-08 15:28:00,
2013-10-08 10:30:00,64.4,47.9,29.18,South,189,10.5,10.5,55,0.00,,,0.00,VWS V13.01,2013-10-08 15:30:00,
2013-10-08 10:31:00,64.9,48.4,29.18,SSW,200,10.5,10.5,55,0.00,,,0.00,VWS V13.01,2013-10-08 15:31:00,
2013-10-08 10:32:00,65.1,48.6,29.18,SSW,204,10.5,10.5,55,0.00,,,0.00,VWS V13.01,2013-10-08 15:32:00,
2013-10-08 10:33:00,65.3,48.7,29.18,South,179,8.1,8.1,55,0.00,,,0.00,VWS V13.01,2013-10-08 15:33:00,
2013-10-08 10:35:00,66.0,49.4,29.18,South,188,9.6,9.6,55,0.00,,,0.00,VWS V13.01,2013-10-08 15:35:00,
2013-10-08 10:36:00,66.0,49.4,29.18,South,181,7.6,7.6,55,0.00,,,0.00,VWS V13.01,2013-10-08 15:36:00,
2013-10-08 10:37:00,65.7,49.1,29.18,South,177,8.7,8.7,55,0.00,,,0.00,VWS V13.01,2013-10-08 15:37:00,
2013-10-08 10:38:00,65.7,49.1,29.18,South,188,8.7,8.7,55,0.00,,,0.00,VWS V13.01,2013-10-08 15:38:00,
2013-10-08 10:40:00,65.8,49.2,29.18,SW,225,10.5,10.5,55,0.00,,,0.00,VWS V13.01,2013-10-08 15:40:00,
2013-10-08 10:41:00,65.5,48.9,29.18,South,171,11.0,11.0,55,0.00,,,0.00,VWS V13.01,2013-10-08 15:41:00,
2013-10-08 10:42:00,65.1,48.6,29.18,South,180,14.1,14.1,55,0.00,,,0.00,VWS V13.01,2013-10-08 15:42:00,
2013-10-08 10:43:00,65.1,48.6,29.18,South,190,12.8,12.8,55,0.00,,,0.00,VWS V13.01,2013-10-08 15:43:00,
2013-10-08 10:45:00,65.5,48.9,29.18,South,184,11.0,11.0,55,0.00,,,0.00,VWS V13.01,2013-10-08 15:45:00,
2013-10-08 10:46:00,65.8,49.2,29.18,South,191,8.7,8.7,55,0.00,,,0.00,VWS V13.01,2013-10-08 15:46:00,
2013-10-08 10:47:00,66.4,46.7,29.18,SSW,193,10.1,10.1,49,0.00,,,0.00,VWS V13.01,2013-10-08 15:47:00,
2013-10-08 10:48:00,65.8,49.2,29.18,South,183,12.8,12.8,55,0.00,,,0.00,VWS V13.01,2013-10-08 15:48:00,
2013-10-08 10:49:00,66.2,46.5,29.18,South,180,11.0,11.0,49,0.00,,,0.00,VWS V13.01,2013-10-08 15:49:00,
2013-10-08 10:50:00,66.0,49.4,29.18,South,183,8.7,8.7,55,0.00,,,0.00,VWS V13.01,2013-10-08 15:50:00,
2013-10-08 10:51:00,66.2,46.5,29.18,SSW,192,8.7,8.7,49,0.00,,,0.00,VWS V13.01,2013-10-08 15:51:00,
2013-10-08 10:52:00,66.0,49.4,29.18,South,183,11.0,11.0,55,0.00,,,0.00,VWS V13.01,2013-10-08 15:52:00,
2013-10-08 10:53:00,66.2,46.5,29.18,South,189,11.0,11.0,49,0.00,,,0.00,VWS V13.01,2013-10-08 15:53:00,
2013-10-08 10:54:00,66.6,46.8,29.18,SSW,194,10.5,10.5,49,0.00,,,0.00,VWS V13.01,2013-10-08 15:54:00,
2013-10-08 10:55:00,66.7,47.0,29.18,SSW,193,10.5,10.5,49,0.00,,,0.00,VWS V13.01,2013-10-08 15:55:00,
2013-10-08 10:56:00,66.7,47.0,29.18,SSW,199,8.7,8.7,49,0.00,,,0.00,VWS V13.01,2013-10-08 15:56:00,
2013-10-08 10:58:00,66.9,47.2,29.18,South,176,10.1,10.1,49,0.00,,,0.00,VWS V13.01,2013-10-08 15:58:00,
2013-10-08 10:59:00,67.1,47.3,29.18,South,181,8.3,8.3,49,0.00,,,0.00,VWS V13.01,2013-10-08 15:59:00,
2013-10-08 11:00:00,66.9,47.2,29.18,South,176,10.1,10.1,49,0.00,,,0.00,VWS V13.01,2013-10-08 16:00:00,
2013-10-08 11:01:00,66.9,47.2,29.18,South,173,11.0,11.0,49,0.00,,,0.00,VWS V13.01,2013-10-08 16:01:00,
2013-10-08 11:03:00,67.3,47.5,29.18,South,172,10.5,10.5,49,0.00,,,0.00,VWS V13.01,2013-10-08 16:03:00,
2013-10-08 11:04:00,66.9,47.2,29.18,South,176,17.4,17.4,49,0.00,,,0.00,VWS V13.01,2013-10-08 16:04:00,
2013-10-08 11:06:00,66.7,47.0,29.18,South,191,9.6,9.6,49,0.00,,,0.00,VWS V13.01,2013-10-08 16:06:00,
2013-10-08 11:08:00,66.9,47.2,29.18,South,187,8.3,8.3,49,0.00,,,0.00,VWS V13.01,2013-10-08 16:08:00,
2013-10-08 11:09:00,67.3,47.5,29.18,SSW,206,8.7,8.7,49,0.00,,,0.00,VWS V13.01,2013-10-08 16:09:00,
2013-10-08 11:11:00,67.6,47.8,29.18,South,181,7.6,7.6,49,0.00,,,0.00,VWS V13.01,2013-10-08 16:11:00,
2013-10-08 11:13:00,67.8,48.0,29.18,South,190,8.3,8.3,49,0.00,,,0.00,VWS V13.01,2013-10-08 16:13:00,
2013-10-08 11:14:00,67.8,48.0,29.18,SSW,195,8.7,8.7,49,0.00,,,0.00,VWS V13.01,2013-10-08 16:14:00,
2013-10-08 11:16:00,67.8,48.0,29.18,South,182,10.5,10.5,49,0.00,,,0.00,VWS V13.01,2013-10-08 16:16:00,
2013-10-08 11:18:00,68.0,48.2,29.18,South,186,10.1,10.1,49,0.00,,,0.00,VWS V13.01,2013-10-08 16:18:00,
2013-10-08 11:19:00,68.4,48.5,29.18,SSW,193,5.8,5.8,49,0.00,,,0.00,VWS V13.01,2013-10-08 16:19:00,
2013-10-08 11:21:00,68.4,48.5,29.18,South,183,11.0,11.0,49,0.00,,,0.00,VWS V13.01,2013-10-08 16:21:00,
2013-10-08 11:23:00,68.2,48.3,29.18,South,184,8.3,8.3,49,0.00,,,0.00,VWS V13.01,2013-10-08 16:23:00,
2013-10-08 11:24:00,69.3,49.3,29.18,South,173,8.1,8.1,49,0.00,,,0.00,VWS V13.01,2013-10-08 16:24:00,
2013-10-08 11:26:00,68.9,49.0,29.18,South,185,8.7,8.7,49,0.00,,,0.00,VWS V13.01,2013-10-08 16:26:00,
2013-10-08 11:28:00,68.5,48.6,29.18,SSE,166,8.7,8.7,49,0.00,,,0.00,VWS V13.01,2013-10-08 16:28:00,
2013-10-08 11:30:00,68.7,48.8,29.18,South,175,8.7,8.7,49,0.00,,,0.00,VWS V13.01,2013-10-08 16:30:00,
2013-10-08 11:31:00,68.7,48.8,29.18,South,175,10.1,10.1,49,0.00,,,0.00,VWS V13.01,2013-10-08 16:31:00,
2013-10-08 11:32:00,68.9,49.0,29.18,SSW,197,10.5,10.5,49,0.00,,,0.00,VWS V13.01,2013-10-08 16:32:00,
2013-10-08 11:33:00,69.1,49.1,29.18,SSW,212,13.2,13.2,49,0.00,,,0.00,VWS V13.01,2013-10-08 16:33:00,
2013-10-08 11:35:00,69.8,49.8,29.18,South,185,8.7,8.7,49,0.00,,,0.00,VWS V13.01,2013-10-08 16:35:00,
2013-10-08 11:36:00,69.6,49.6,29.18,SSW,193,14.5,14.5,49,0.00,,,0.00,VWS V13.01,2013-10-08 16:36:00,
2013-10-08 11:37:00,69.4,49.5,29.18,SSW,195,10.5,10.5,49,0.00,,,0.00,VWS V13.01,2013-10-08 16:37:00,
2013-10-08 11:38:00,69.4,49.5,29.18,South,179,10.1,10.1,49,0.00,,,0.00,VWS V13.01,2013-10-08 16:38:00,
2013-10-08 11:40:00,69.1,49.1,29.18,SSW,202,11.0,11.0,49,0.00,,,0.00,VWS V13.01,2013-10-08 16:40:00,
2013-10-08 11:41:00,69.4,49.5,29.18,SSW,194,11.0,11.0,49,0.00,,,0.00,VWS V13.01,2013-10-08 16:41:00,
2013-10-08 11:42:00,69.4,49.5,29.18,SSW,198,12.8,12.8,49,0.00,,,0.00,VWS V13.01,2013-10-08 16:42:00,
2013-10-08 11:43:00,69.3,49.3,29.18,South,187,15.4,15.4,49,0.00,,,0.00,VWS V13.01,2013-10-08 16:43:00,
2013-10-08 11:44:00,69.1,49.1,29.18,SSW,204,13.2,13.2,49,0.00,,,0.00,VWS V13.01,2013-10-08 16:44:00,
2013-10-08 11:45:00,69.4,49.5,29.18,SSW,192,11.0,11.0,49,0.00,,,0.00,VWS V13.01,2013-10-08 16:45:00,
2013-10-08 11:46:00,70.0,50.0,29.18,South,180,11.4,11.4,49,0.00,,,0.00,VWS V13.01,2013-10-08 16:46:00,
2013-10-08 11:47:00,69.6,49.6,29.18,South,181,17.0,17.0,49,0.00,,,0.00,VWS V13.01,2013-10-08 16:47:00,
2013-10-08 11:48:00,69.6,49.6,29.18,South,176,10.1,10.1,49,0.00,,,0.00,VWS V13.01,2013-10-08 16:48:00,
2013-10-08 11:49:00,69.4,49.5,29.18,South,175,8.7,8.7,49,0.00,,,0.00,VWS V13.01,2013-10-08 16:49:00,
2013-10-08 11:50:00,70.2,50.1,29.18,South,182,11.0,11.0,49,0.00,,,0.00,VWS V13.01,2013-10-08 16:50:00,
2013-10-08 11:51:00,70.5,50.5,29.18,SSW,200,11.9,11.9,49,0.00,,,0.00,VWS V13.01,2013-10-08 16:51:00,
2013-10-08 11:52:00,70.5,50.5,29.18,SSW,200,11.0,11.0,49,0.00,,,0.00,VWS V13.01,2013-10-08 16:52:00,
2013-10-08 11:53:00,69.8,49.8,29.18,South,190,13.2,13.2,49,0.00,,,0.00,VWS V13.01,2013-10-08 16:53:00,
2013-10-08 11:54:00,69.8,49.8,29.18,SSW,196,14.5,14.5,49,0.00,,,0.00,VWS V13.01,2013-10-08 16:54:00,
2013-10-08 11:55:00,70.0,50.0,29.18,SSW,193,8.7,8.7,49,0.00,,,0.00,VWS V13.01,2013-10-08 16:55:00,
2013-10-08 11:56:00,70.5,50.5,29.18,South,177,11.0,11.0,49,0.00,,,0.00,VWS V13.01,2013-10-08 16:56:00,
2013-10-08 11:57:00,70.5,50.5,29.18,South,176,10.1,10.1,49,0.00,,,0.00,VWS V13.01,2013-10-08 16:57:00,
2013-10-08 11:58:00,70.5,50.5,29.18,SSW,192,12.8,12.8,49,0.00,,,0.00,VWS V13.01,2013-10-08 16:58:00,
2013-10-08 11:59:00,70.3,50.3,29.18,SSW,201,12.8,12.8,49,0.00,,,0.00,VWS V13.01,2013-10-08 16:59:00,
2013-10-08 12:00:00,70.5,50.5,29.18,South,188,11.0,11.0,49,0.00,,,0.00,VWS V13.01,2013-10-08 17:00:00,
2013-10-08 12:02:00,70.7,50.6,29.18,SSW,196,11.9,11.9,49,0.00,,,0.00,VWS V13.01,2013-10-08 17:02:00,
2013-10-08 12:03:00,70.9,50.8,29.18,South,177,11.0,11.0,49,0.00,,,0.00,VWS V13.01,2013-10-08 17:03:00,
2013-10-08 12:04:00,71.1,51.0,29.18,South,172,10.5,10.5,49,0.00,,,0.00,VWS V13.01,2013-10-08 17:04:00,
2013-10-08 12:06:00,70.7,50.6,29.18,South,173,11.0,11.0,49,0.00,,,0.00,VWS V13.01,2013-10-08 17:06:00,
2013-10-08 12:07:00,70.7,50.6,29.18,SSW,199,13.2,13.2,49,0.00,,,0.00,VWS V13.01,2013-10-08 17:07:00,
2013-10-08 12:08:00,71.1,51.0,29.18,South,176,10.5,10.5,49,0.00,,,0.00,VWS V13.01,2013-10-08 17:08:00,
2013-10-08 12:09:00,70.7,50.6,29.18,SSE,166,10.1,10.1,49,0.00,,,0.00,VWS V13.01,2013-10-08 17:09:00,
2013-10-08 12:11:00,70.7,50.6,29.18,South,176,13.6,13.6,49,0.00,,,0.00,VWS V13.01,2013-10-08 17:11:00,
2013-10-08 12:12:00,70.7,50.6,29.18,South,175,10.5,10.5,49,0.00,,,0.00,VWS V13.01,2013-10-08 17:12:00,
2013-10-08 12:13:00,70.9,50.8,29.18,SSW,207,13.2,13.2,49,0.00,,,0.00,VWS V13.01,2013-10-08 17:13:00,
2013-10-08 12:15:00,70.9,50.8,29.18,SSW,197,10.5,10.5,49,0.00,,,0.00,VWS V13.01,2013-10-08 17:15:00,
2013-10-08 12:16:00,70.7,50.6,29.18,South,186,13.6,13.6,49,0.00,,,0.00,VWS V13.01,2013-10-08 17:16:00,
2013-10-08 12:17:00,70.7,50.6,29.18,South,190,11.4,11.4,49,0.00,,,0.00,VWS V13.01,2013-10-08 17:17:00,
2013-10-08 12:18:00,71.2,51.1,29.18,South,181,8.7,8.7,49,0.00,,,0.00,VWS V13.01,2013-10-08 17:18:00,
2013-10-08 12:20:00,71.8,48.1,29.18,South,173,10.5,10.5,43,0.00,,,0.00,VWS V13.01,2013-10-08 17:20:00,
2013-10-08 12:21:00,71.8,48.1,29.18,South,179,10.5,10.5,43,0.00,,,0.00,VWS V13.01,2013-10-08 17:21:00,
2013-10-08 12:22:00,71.8,48.1,29.18,South,171,11.0,11.0,43,0.00,,,0.00,VWS V13.01,2013-10-08 17:22:00,
2013-10-08 12:23:00,71.6,47.9,29.18,South,177,8.7,8.7,43,0.00,,,0.00,VWS V13.01,2013-10-08 17:23:00,
2013-10-08 12:25:00,71.6,47.9,29.18,SE,124,13.2,13.2,43,0.00,,,0.00,VWS V13.01,2013-10-08 17:25:00,
2013-10-08 12:26:00,71.8,48.1,29.18,South,172,11.0,11.0,43,0.00,,,0.00,VWS V13.01,2013-10-08 17:26:00,
2013-10-08 12:27:00,72.0,48.3,29.18,South,181,11.0,11.0,43,0.00,,,0.00,VWS V13.01,2013-10-08 17:27:00,
2013-10-08 12:28:00,72.0,48.3,29.18,South,173,11.0,11.0,43,0.00,,,0.00,VWS V13.01,2013-10-08 17:28:00,
2013-10-08 12:29:00,71.8,48.1,29.18,SSE,160,8.3,8.3,43,0.00,,,0.00,VWS V13.01,2013-10-08 17:29:00,
2013-10-08 12:30:00,72.5,48.8,29.18,South,176,10.1,10.1,43,0.00,,,0.00,VWS V13.01,2013-10-08 17:30:00,
2013-10-08 12:31:00,72.7,48.9,29.18,SSE,162,11.9,11.9,43,0.00,,,0.00,VWS V13.01,2013-10-08 17:31:00,
2013-10-08 12:32:00,72.3,48.6,29.18,South,170,10.5,10.5,43,0.00,,,0.00,VWS V13.01,2013-10-08 17:32:00,
2013-10-08 12:33:00,72.3,48.6,29.18,SSW,198,8.7,8.7,43,0.00,,,0.00,VWS V13.01,2013-10-08 17:33:00,
2013-10-08 12:34:00,73.0,49.2,29.18,SSW,195,14.1,14.1,43,0.00,,,0.00,VWS V13.01,2013-10-08 17:34:00,
2013-10-08 12:35:00,72.9,49.1,29.18,South,180,11.0,11.0,43,0.00,,,0.00,VWS V13.01,2013-10-08 17:35:00,
2013-10-08 12:36:00,73.0,49.2,29.18,SSW,202,15.4,15.4,43,0.00,,,0.00,VWS V13.01,2013-10-08 17:36:00,
2013-10-08 12:37:00,73.0,49.2,29.18,South,174,13.2,13.2,43,0.00,,,0.00,VWS V13.01,2013-10-08 17:37:00,
2013-10-08 12:38:00,73.2,49.4,29.18,South,174,13.2,13.2,43,0.00,,,0.00,VWS V13.01,2013-10-08 17:38:00,
2013-10-08 12:39:00,73.0,49.2,29.18,SSW,197,15.4,15.4,43,0.00,,,0.00,VWS V13.01,2013-10-08 17:39:00,
2013-10-08 12:40:00,72.9,49.1,29.18,South,188,12.3,12.3,43,0.00,,,0.00,VWS V13.01,2013-10-08 17:40:00,
2013-10-08 12:41:00,73.0,49.2,29.18,South,181,11.0,11.0,43,0.00,,,0.00,VWS V13.01,2013-10-08 17:41:00,
2013-10-08 12:42:00,72.9,49.1,29.18,SSW,207,10.1,10.1,43,0.00,,,0.00,VWS V13.01,2013-10-08 17:42:00,
2013-10-08 12:43:00,72.9,49.1,29.18,SSW,198,10.5,10.5,43,0.00,,,0.00,VWS V13.01,2013-10-08 17:43:00,
2013-10-08 12:44:00,72.7,48.9,29.18,SSW,192,17.0,17.0,43,0.00,,,0.00,VWS V13.01,2013-10-08 17:44:00,
2013-10-08 12:45:00,72.9,49.1,29.18,South,181,12.3,12.3,43,0.00,,,0.00,VWS V13.01,2013-10-08 17:45:00,
2013-10-08 12:46:00,73.2,49.4,29.18,South,176,13.2,13.2,43,0.00,,,0.00,VWS V13.01,2013-10-08 17:46:00,
2013-10-08 12:47:00,73.4,49.6,29.18,SSE,168,11.9,11.9,43,0.00,,,0.00,VWS V13.01,2013-10-08 17:47:00,
2013-10-08 12:48:00,73.4,49.6,29.18,South,169,9.6,9.6,43,0.00,,,0.00,VWS V13.01,2013-10-08 17:48:00,
2013-10-08 12:49:00,72.9,49.1,29.18,SSW,201,9.6,9.6,43,0.00,,,0.00,VWS V13.01,2013-10-08 17:49:00,
2013-10-08 12:50:00,73.6,49.7,29.18,SSE,167,11.4,11.4,43,0.00,,,0.00,VWS V13.01,2013-10-08 17:50:00,
2013-10-08 12:51:00,73.6,49.7,29.18,SSE,167,11.4,11.4,43,0.00,,,0.00,VWS V13.01,2013-10-08 17:51:00,
2013-10-08 12:52:00,73.6,49.7,29.18,SSW,198,8.1,8.1,43,0.00,,,0.00,VWS V13.01,2013-10-08 17:52:00,
2013-10-08 12:53:00,74.7,50.7,29.18,South,173,8.7,8.7,43,0.00,,,0.00,VWS V13.01,2013-10-08 17:53:00,
2013-10-08 12:54:00,74.7,50.7,29.18,South,173,8.7,8.7,43,0.00,,,0.00,VWS V13.01,2013-10-08 17:54:00,
2013-10-08 12:55:00,74.7,50.7,29.18,SSE,165,8.3,8.3,43,0.00,,,0.00,VWS V13.01,2013-10-08 17:55:00,
2013-10-08 12:56:00,74.3,57.1,29.18,South,183,8.3,8.3,55,0.00,,,0.00,VWS V13.01,2013-10-08 17:56:00,
2013-10-08 12:57:00,74.3,57.1,29.18,South,183,8.3,8.3,55,0.00,,,0.00,VWS V13.01,2013-10-08 17:57:00,
2013-10-08 12:58:00,74.3,57.1,29.18,South,183,8.3,8.3,55,0.00,,,0.00,VWS V13.01,2013-10-08 17:58:00,
2013-10-08 12:59:00,74.3,57.1,29.18,South,183,8.3,8.3,55,0.00,,,0.00,VWS V13.01,2013-10-08 17:59:00,
2013-10-08 13:01:00,73.9,50.1,29.18,SSW,199,12.8,12.8,43,0.00,,,0.00,VWS V13.01,2013-10-08 18:01:00,
2013-10-08 13:03:00,74.3,50.4,29.18,South,183,8.3,8.3,43,0.00,,,0.00,VWS V13.01,2013-10-08 18:03:00,
2013-10-08 13:04:00,73.9,50.1,29.18,South,188,11.0,11.0,43,0.00,,,0.00,VWS V13.01,2013-10-08 18:04:00,
2013-10-08 13:06:00,74.3,50.4,29.18,SSW,193,8.7,8.7,43,0.00,,,0.00,VWS V13.01,2013-10-08 18:06:00,
2013-10-08 13:07:00,75.0,51.0,29.18,South,186,12.8,12.8,43,0.00,,,0.00,VWS V13.01,2013-10-08 18:07:00,
2013-10-08 13:08:00,74.1,56.9,29.18,South,182,12.8,12.8,55,0.00,,,0.00,VWS V13.01,2013-10-08 18:08:00,
2013-10-08 13:10:00,74.8,57.6,29.15,South,175,8.3,8.3,55,0.00,,,0.00,VWS V13.01,2013-10-08 18:10:00,
2013-10-08 13:11:00,75.2,57.9,29.15,South,180,12.8,12.8,55,0.00,,,0.00,VWS V13.01,2013-10-08 18:11:00,
2013-10-08 13:12:00,75.4,58.1,29.15,SSE,163,11.0,11.0,55,0.00,,,0.00,VWS V13.01,2013-10-08 18:12:00,
2013-10-08 13:13:00,75.2,57.9,29.15,SSE,159,12.8,12.8,55,0.00,,,0.00,VWS V13.01,2013-10-08 18:13:00,
2013-10-08 13:15:00,75.0,57.8,29.15,SSE,168,15.0,15.0,55,0.00,,,0.00,VWS V13.01,2013-10-08 18:15:00,
2013-10-08 13:16:00,75.2,57.9,29.15,SSE,149,12.3,12.3,55,0.00,,,0.00,VWS V13.01,2013-10-08 18:16:00,
2013-10-08 13:17:00,76.1,58.8,29.15,SE,140,11.0,11.0,55,0.00,,,0.00,VWS V13.01,2013-10-08 18:17:00,
2013-10-08 13:18:00,75.4,58.1,29.15,South,174,13.2,13.2,55,0.00,,,0.00,VWS V13.01,2013-10-08 18:18:00,
2013-10-08 13:20:00,75.2,57.9,29.15,South,171,8.3,8.3,55,0.00,,,0.00,VWS V13.01,2013-10-08 18:20:00,
2013-10-08 13:21:00,75.9,58.6,29.15,South,175,10.5,10.5,55,0.00,,,0.00,VWS V13.01,2013-10-08 18:21:00,
2013-10-08 13:22:00,75.4,58.1,29.15,South,171,10.5,10.5,55,0.00,,,0.00,VWS V13.01,2013-10-08 18:22:00,
2013-10-08 13:23:00,75.4,58.1,29.15,SE,145,8.3,8.3,55,0.00,,,0.00,VWS V13.01,2013-10-08 18:23:00,
2013-10-08 13:25:00,75.6,58.3,29.15,SSE,165,10.5,10.5,55,0.00,,,0.00,VWS V13.01,2013-10-08 18:25:00,
2013-10-08 13:26:00,76.1,58.8,29.15,South,175,8.1,8.1,55,0.00,,,0.00,VWS V13.01,2013-10-08 18:26:00,
2013-10-08 13:27:00,76.1,58.8,29.15,SSW,206,10.5,10.5,55,0.00,,,0.00,VWS V13.01,2013-10-08 18:27:00,
2013-10-08 13:28:00,75.6,58.3,29.15,South,191,15.0,15.0,55,0.00,,,0.00,VWS V13.01,2013-10-08 18:28:00,
2013-10-08 13:30:00,75.4,58.1,29.15,South,173,14.1,14.1,55,0.00,,,0.00,VWS V13.01,2013-10-08 18:30:00,
2013-10-08 13:31:00,74.7,57.4,29.15,South,172,12.3,12.3,55,0.00,,,0.00,VWS V13.01,2013-10-08 18:31:00,
2013-10-08 13:32:00,75.2,57.9,29.15,South,173,11.0,11.0,55,0.00,,,0.00,VWS V13.01,2013-10-08 18:32:00,
2013-10-08 13:33:00,74.7,57.4,29.15,South,173,10.1,10.1,55,0.00,,,0.00,VWS V13.01,2013-10-08 18:33:00,
2013-10-08 13:35:00,76.3,58.9,29.15,SSW,204,9.2,9.2,55,0.00,,,0.00,VWS V13.01,2013-10-08 18:35:00,
2013-10-08 13:36:00,76.5,59.1,29.15,South,171,8.7,8.7,55,0.00,,,0.00,VWS V13.01,2013-10-08 18:36:00,
2013-10-08 13:37:00,76.1,58.8,29.15,South,179,9.2,9.2,55,0.00,,,0.00,VWS V13.01,2013-10-08 18:37:00,
2013-10-08 13:38:00,75.9,58.6,29.15,SSE,168,10.1,10.1,55,0.00,,,0.00,VWS V13.01,2013-10-08 18:38:00,
2013-10-08 13:40:00,76.3,58.9,29.15,South,172,12.8,12.8,55,0.00,,,0.00,VWS V13.01,2013-10-08 18:40:00,
2013-10-08 13:41:00,75.2,57.9,29.15,South,172,11.0,11.0,55,0.00,,,0.00,VWS V13.01,2013-10-08 18:41:00,
2013-10-08 13:42:00,75.2,57.9,29.15,South,177,11.9,11.9,55,0.00,,,0.00,VWS V13.01,2013-10-08 18:42:00,
2013-10-08 13:43:00,75.9,58.6,29.15,South,179,9.6,9.6,55,0.00,,,0.00,VWS V13.01,2013-10-08 18:43:00,
2013-10-08 13:44:00,75.6,58.3,29.15,South,186,11.0,11.0,55,0.00,,,0.00,VWS V13.01,2013-10-08 18:44:00,
2013-10-08 13:46:00,76.8,59.5,29.15,South,176,8.3,8.3,55,0.00,,,0.00,VWS V13.01,2013-10-08 18:46:00,
2013-10-08 13:47:00,76.6,59.3,29.15,South,169,10.5,10.5,55,0.00,,,0.00,VWS V13.01,2013-10-08 18:47:00,
2013-10-08 13:48:00,75.9,58.6,29.15,South,173,15.0,15.0,55,0.00,,,0.00,VWS V13.01,2013-10-08 18:48:00,
2013-10-08 13:49:00,75.2,57.9,29.15,South,170,11.0,11.0,55,0.00,,,0.00,VWS V13.01,2013-10-08 18:49:00,
2013-10-08 13:51:00,75.0,57.8,29.15,South,182,12.3,12.3,55,0.00,,,0.00,VWS V13.01,2013-10-08 18:51:00,
2013-10-08 13:52:00,75.2,57.9,29.15,South,177,11.0,11.0,55,0.00,,,0.00,VWS V13.01,2013-10-08 18:52:00,
2013-10-08 13:53:00,75.4,58.1,29.15,South,172,11.0,11.0,55,0.00,,,0.00,VWS V13.01,2013-10-08 18:53:00,
2013-10-08 13:54:00,74.7,57.4,29.15,South,173,9.6,9.6,55,0.00,,,0.00,VWS V13.01,2013-10-08 18:54:00,
2013-10-08 13:56:00,75.6,58.3,29.15,SSE,158,13.2,13.2,55,0.00,,,0.00,VWS V13.01,2013-10-08 18:56:00,
2013-10-08 13:57:00,74.8,57.6,29.15,South,176,12.8,12.8,55,0.00,,,0.00,VWS V13.01,2013-10-08 18:57:00,
2013-10-08 13:58:00,74.5,57.3,29.15,South,175,13.2,13.2,55,0.00,,,0.00,VWS V13.01,2013-10-08 18:58:00,
2013-10-08 13:59:00,74.7,57.4,29.15,South,172,11.9,11.9,55,0.00,,,0.00,VWS V13.01,2013-10-08 18:59:00,
2013-10-08 14:01:00,74.8,50.9,29.15,SSW,193,11.0,11.0,43,0.00,,,0.00,VWS V13.01,2013-10-08 19:01:00,
2013-10-08 14:02:00,74.7,50.7,29.15,South,180,12.8,12.8,43,0.00,,,0.00,VWS V13.01,2013-10-08 19:02:00,
2013-10-08 14:03:00,74.7,50.7,29.15,SSW,195,11.4,11.4,43,0.00,,,0.00,VWS V13.01,2013-10-08 19:03:00,
2013-10-08 14:04:00,74.3,50.4,29.15,South,173,13.2,13.2,43,0.00,,,0.00,VWS V13.01,2013-10-08 19:04:00,
2013-10-08 14:06:00,74.5,50.5,29.15,SSW,198,12.8,12.8,43,0.00,,,0.00,VWS V13.01,2013-10-08 19:06:00,
2013-10-08 14:07:00,74.7,50.7,29.15,SSW,192,13.2,13.2,43,0.00,,,0.00,VWS V13.01,2013-10-08 19:07:00,
2013-10-08 14:08:00,74.7,50.7,29.15,South,190,13.2,13.2,43,0.00,,,0.00,VWS V13.01,2013-10-08 19:08:00,
2013-10-08 14:09:00,74.5,50.5,29.15,SSW,210,13.2,13.2,43,0.00,,,0.00,VWS V13.01,2013-10-08 19:09:00,
2013-10-08 14:12:00,74.5,50.5,29.15,South,175,10.5,10.5,43,0.00,,,0.00,VWS V13.01,2013-10-08 19:12:00,
2013-10-08 14:13:00,74.8,50.9,29.15,SSW,192,10.5,10.5,43,0.00,,,0.00,VWS V13.01,2013-10-08 19:13:00,
2013-10-08 14:14:00,74.5,50.5,29.15,South,177,10.1,10.1,43,0.00,,,0.00,VWS V13.01,2013-10-08 19:14:00,
2013-10-08 14:17:00,73.6,49.7,29.15,South,180,10.5,10.5,43,0.00,,,0.00,VWS V13.01,2013-10-08 19:17:00,
2013-10-08 14:18:00,73.2,49.4,29.15,South,173,8.3,8.3,43,0.00,,,0.00,VWS V13.01,2013-10-08 19:18:00,
2013-10-08 14:19:00,73.4,49.6,29.15,SSW,198,13.2,13.2,43,0.00,,,0.00,VWS V13.01,2013-10-08 19:19:00,
2013-10-08 14:22:00,73.8,49.9,29.15,SSW,198,11.0,11.0,43,0.00,,,0.00,VWS V13.01,2013-10-08 19:22:00,
2013-10-08 14:23:00,73.6,49.7,29.15,SSW,205,10.1,10.1,43,0.00,,,0.00,VWS V13.01,2013-10-08 19:23:00,
2013-10-08 14:24:00,73.8,49.9,29.15,SSW,195,8.1,8.1,43,0.00,,,0.00,VWS V13.01,2013-10-08 19:24:00,
2013-10-08 14:27:00,73.4,49.6,29.12,South,184,10.5,10.5,43,0.00,,,0.00,VWS V13.01,2013-10-08 19:27:00,
2013-10-08 14:28:00,73.6,49.7,29.12,South,175,11.0,11.0,43,0.00,,,0.00,VWS V13.01,2013-10-08 19:28:00,
2013-10-08 14:29:00,73.4,49.6,29.12,South,183,10.5,10.5,43,0.00,,,0.00,VWS V13.01,2013-10-08 19:29:00,
2013-10-08 14:32:00,73.6,49.7,29.12,South,173,10.5,10.5,43,0.00,,,0.00,VWS V13.01,2013-10-08 19:32:00,
2013-10-08 14:33:00,73.8,49.9,29.12,South,191,13.2,13.2,43,0.00,,,0.00,VWS V13.01,2013-10-08 19:33:00,
2013-10-08 14:34:00,73.4,49.6,29.12,South,180,12.8,12.8,43,0.00,,,0.00,VWS V13.01,2013-10-08 19:34:00,
2013-10-08 14:37:00,73.8,49.9,29.12,South,170,9.2,9.2,43,0.00,,,0.00,VWS V13.01,2013-10-08 19:37:00,
2013-10-08 14:38:00,73.6,49.7,29.12,SSW,200,11.9,11.9,43,0.00,,,0.00,VWS V13.01,2013-10-08 19:38:00,
2013-10-08 14:39:00,73.9,50.1,29.12,South,178,11.0,11.0,43,0.00,,,0.00,VWS V13.01,2013-10-08 19:39:00,
2013-10-08 14:42:00,73.8,49.9,29.12,South,185,13.2,13.2,43,0.00,,,0.00,VWS V13.01,2013-10-08 19:42:00,
2013-10-08 14:43:00,73.2,49.4,29.12,South,175,10.1,10.1,43,0.00,,,0.00,VWS V13.01,2013-10-08 19:43:00,
2013-10-08 14:44:00,73.2,49.4,29.12,SSW,195,8.7,8.7,43,0.00,,,0.00,VWS V13.01,2013-10-08 19:44:00,
2013-10-08 14:47:00,74.3,50.4,29.12,South,186,8.1,8.1,43,0.00,,,0.00,VWS V13.01,2013-10-08 19:47:00,
2013-10-08 14:48:00,73.8,49.9,29.12,South,182,8.1,8.1,43,0.00,,,0.00,VWS V13.01,2013-10-08 19:48:00,
2013-10-08 14:49:00,73.8,49.9,29.12,SSW,195,8.1,8.1,43,0.00,,,0.00,VWS V13.01,2013-10-08 19:49:00,
2013-10-08 14:50:00,73.6,49.7,29.12,South,191,11.9,11.9,43,0.00,,,0.00,VWS V13.01,2013-10-08 19:50:00,
2013-10-08 14:52:00,74.5,50.5,29.12,SSW,210,12.8,12.8,43,0.00,,,0.00,VWS V13.01,2013-10-08 19:52:00,
2013-10-08 14:54:00,74.5,50.5,29.12,South,175,10.1,10.1,43,0.00,,,0.00,VWS V13.01,2013-10-08 19:54:00,
2013-10-08 14:55:00,73.4,49.6,29.12,South,180,11.0,11.0,43,0.00,,,0.00,VWS V13.01,2013-10-08 19:55:00,
2013-10-08 14:57:00,73.8,49.9,29.12,South,175,8.1,8.1,43,0.00,,,0.00,VWS V13.01,2013-10-08 19:57:00,
2013-10-08 14:59:00,74.5,50.5,29.12,South,182,10.5,10.5,43,0.00,,,0.00,VWS V13.01,2013-10-08 19:59:00,
2013-10-08 15:00:00,74.7,50.7,29.12,South,176,8.7,8.7,43,0.00,,,0.00,VWS V13.01,2013-10-08 20:00:00,
2013-10-08 15:02:00,74.7,50.7,29.12,South,176,10.1,10.1,43,0.00,,,0.00,VWS V13.01,2013-10-08 20:02:00,
2013-10-08 15:04:00,73.9,50.1,29.12,SSW,197,11.0,11.0,43,0.00,,,0.00,VWS V13.01,2013-10-08 20:04:00,
2013-10-08 15:05:00,73.2,49.4,29.12,South,183,11.9,11.9,43,0.00,,,0.00,VWS V13.01,2013-10-08 20:05:00,
2013-10-08 15:07:00,73.2,49.4,29.12,South,176,8.3,8.3,43,0.00,,,0.00,VWS V13.01,2013-10-08 20:07:00,
2013-10-08 15:09:00,73.4,49.6,29.12,South,177,11.0,11.0,43,0.00,,,0.00,VWS V13.01,2013-10-08 20:09:00,
2013-10-08 15:10:00,73.6,49.7,29.12,South,176,8.3,8.3,43,0.00,,,0.00,VWS V13.01,2013-10-08 20:10:00,
2013-10-08 15:12:00,73.6,49.7,29.12,South,176,8.3,8.3,43,0.00,,,0.00,VWS V13.01,2013-10-08 20:12:00,
2013-10-08 15:14:00,73.6,49.7,29.12,South,171,9.2,9.2,43,0.00,,,0.00,VWS V13.01,2013-10-08 20:14:00,
2013-10-08 15:15:00,73.6,49.7,29.12,South,183,9.2,9.2,43,0.00,,,0.00,VWS V13.01,2013-10-08 20:15:00,
2013-10-08 15:17:00,74.5,50.5,29.12,South,177,8.3,8.3,43,0.00,,,0.00,VWS V13.01,2013-10-08 20:17:00,
2013-10-08 15:19:00,74.3,50.4,29.12,South,189,11.0,11.0,43,0.00,,,0.00,VWS V13.01,2013-10-08 20:19:00,
2013-10-08 15:20:00,74.3,50.4,29.12,South,184,10.1,10.1,43,0.00,,,0.00,VWS V13.01,2013-10-08 20:20:00,
2013-10-08 15:22:00,73.8,49.9,29.12,SSW,195,12.3,12.3,43,0.00,,,0.00,VWS V13.01,2013-10-08 20:22:00,
2013-10-08 15:24:00,73.4,49.6,29.12,South,171,11.0,11.0,43,0.00,,,0.00,VWS V13.01,2013-10-08 20:24:00,
2013-10-08 15:25:00,73.4,49.6,29.12,SSE,158,10.5,10.5,43,0.00,,,0.00,VWS V13.01,2013-10-08 20:25:00,
2013-10-08 15:28:00,73.6,49.7,29.12,SE,146,8.1,8.1,43,0.00,,,0.00,VWS V13.01,2013-10-08 20:28:00,
2013-10-08 15:29:00,73.4,49.6,29.12,SSE,167,10.1,10.1,43,0.00,,,0.00,VWS V13.01,2013-10-08 20:29:00,
2013-10-08 15:30:00,73.9,50.1,29.12,SSW,199,8.3,8.3,43,0.00,,,0.00,VWS V13.01,2013-10-08 20:30:00,
2013-10-08 15:33:00,73.6,49.7,29.12,South,185,9.2,9.2,43,0.00,,,0.00,VWS V13.01,2013-10-08 20:33:00,
2013-10-08 15:34:00,73.9,50.1,29.12,South,172,8.7,8.7,43,0.00,,,0.00,VWS V13.01,2013-10-08 20:34:00,
2013-10-08 15:35:00,73.8,49.9,29.12,South,190,10.5,10.5,43,0.00,,,0.00,VWS V13.01,2013-10-08 20:35:00,
2013-10-08 15:38:00,73.4,49.6,29.12,South,177,13.2,13.2,43,0.00,,,0.00,VWS V13.01,2013-10-08 20:38:00,
2013-10-08 15:39:00,73.2,49.4,29.12,South,173,15.4,15.4,43,0.00,,,0.00,VWS V13.01,2013-10-08 20:39:00,
2013-10-08 15:40:00,73.2,49.4,29.12,South,185,15.0,15.0,43,0.00,,,0.00,VWS V13.01,2013-10-08 20:40:00,
2013-10-08 15:41:00,73.2,49.4,29.12,SSW,194,11.0,11.0,43,0.00,,,0.00,VWS V13.01,2013-10-08 20:41:00,
2013-10-08 15:43:00,73.6,49.7,29.12,South,170,13.2,13.2,43,0.00,,,0.00,VWS V13.01,2013-10-08 20:43:00,
2013-10-08 15:45:00,73.2,49.4,29.12,South,177,10.5,10.5,43,0.00,,,0.00,VWS V13.01,2013-10-08 20:45:00,
2013-10-08 15:46:00,73.2,49.4,29.12,South,173,15.4,15.4,43,0.00,,,0.00,VWS V13.01,2013-10-08 20:46:00,
2013-10-08 15:48:00,73.2,49.4,29.12,South,173,11.0,11.0,43,0.00,,,0.00,VWS V13.01,2013-10-08 20:48:00,
2013-10-08 15:50:00,73.4,49.6,29.12,South,176,10.5,10.5,43,0.00,,,0.00,VWS V13.01,2013-10-08 20:50:00,
2013-10-08 15:51:00,73.6,49.7,29.12,SE,142,7.6,7.6,43,0.00,,,0.00,VWS V13.01,2013-10-08 20:51:00,
2013-10-08 15:53:00,73.4,49.6,29.12,South,173,15.0,15.0,43,0.00,,,0.00,VWS V13.01,2013-10-08 20:53:00,
2013-10-08 15:55:00,73.4,49.6,29.12,South,169,12.8,12.8,43,0.00,,,0.00,VWS V13.01,2013-10-08 20:55:00,
2013-10-08 15:56:00,73.4,49.6,29.12,South,185,10.5,10.5,43,0.00,,,0.00,VWS V13.01,2013-10-08 20:56:00,
2013-10-08 15:59:00,73.0,49.2,29.12,South,187,11.4,11.4,43,0.00,,,0.00,VWS V13.01,2013-10-08 20:59:00,
2013-10-08 16:00:00,73.2,49.4,29.12,SE,133,6.3,6.3,43,0.00,,,0.00,VWS V13.01,2013-10-08 21:00:00,
2013-10-08 16:01:00,73.4,49.6,29.12,South,170,12.8,12.8,43,0.00,,,0.00,VWS V13.01,2013-10-08 21:01:00,
2013-10-08 16:02:00,73.2,49.4,29.12,South,175,10.1,10.1,43,0.00,,,0.00,VWS V13.01,2013-10-08 21:02:00,
2013-10-08 16:04:00,73.2,49.4,29.12,South,183,8.7,8.7,43,0.00,,,0.00,VWS V13.01,2013-10-08 21:04:00,
2013-10-08 16:05:00,73.2,49.4,29.12,South,171,10.5,10.5,43,0.00,,,0.00,VWS V13.01,2013-10-08 21:05:00,
2013-10-08 16:06:00,73.2,49.4,29.12,South,191,10.5,10.5,43,0.00,,,0.00,VWS V13.01,2013-10-08 21:06:00,
2013-10-08 16:07:00,73.6,49.7,29.12,South,177,8.3,8.3,43,0.00,,,0.00,VWS V13.01,2013-10-08 21:07:00,
2013-10-08 16:09:00,73.6,49.7,29.12,South,172,11.4,11.4,43,0.00,,,0.00,VWS V13.01,2013-10-08 21:09:00,
2013-10-08 16:10:00,73.2,49.4,29.12,South,174,13.2,13.2,43,0.00,,,0.00,VWS V13.01,2013-10-08 21:10:00,
2013-10-08 16:11:00,73.0,49.2,29.12,South,178,12.3,12.3,43,0.00,,,0.00,VWS V13.01,2013-10-08 21:11:00,
2013-10-08 16:12:00,73.2,49.4,29.12,South,176,12.3,12.3,43,0.00,,,0.00,VWS V13.01,2013-10-08 21:12:00,
2013-10-08 16:14:00,73.6,49.7,29.12,South,175,10.5,10.5,43,0.00,,,0.00,VWS V13.01,2013-10-08 21:14:00,
2013-10-08 16:15:00,73.4,49.6,29.12,SSE,168,8.7,8.7,43,0.00,,,0.00,VWS V13.01,2013-10-08 21:15:00,
2013-10-08 16:16:00,73.4,49.6,29.12,South,169,9.6,9.6,43,0.00,,,0.00,VWS V13.01,2013-10-08 21:16:00,
2013-10-08 16:17:00,73.2,49.4,29.12,SSE,168,11.9,11.9,43,0.00,,,0.00,VWS V13.01,2013-10-08 21:17:00,
2013-10-08 16:19:00,73.0,49.2,29.12,South,173,11.4,11.4,43,0.00,,,0.00,VWS V13.01,2013-10-08 21:19:00,
2013-10-08 16:20:00,73.0,49.2,29.12,South,175,11.0,11.0,43,0.00,,,0.00,VWS V13.01,2013-10-08 21:20:00,
2013-10-08 16:21:00,73.0,49.2,29.12,South,190,13.2,13.2,43,0.00,,,0.00,VWS V13.01,2013-10-08 21:21:00,
2013-10-08 16:22:00,73.0,49.2,29.12,South,177,11.0,11.0,43,0.00,,,0.00,VWS V13.01,2013-10-08 21:22:00,
2013-10-08 16:24:00,73.0,49.2,29.12,South,170,8.7,8.7,43,0.00,,,0.00,VWS V13.01,2013-10-08 21:24:00,
2013-10-08 16:25:00,73.2,49.4,29.12,SSW,198,10.5,10.5,43,0.00,,,0.00,VWS V13.01,2013-10-08 21:25:00,
2013-10-08 16:26:00,73.2,49.4,29.12,SSW,198,10.1,10.1,43,0.00,,,0.00,VWS V13.01,2013-10-08 21:26:00,
2013-10-08 16:27:00,73.4,49.6,29.12,South,175,9.2,9.2,43,0.00,,,0.00,VWS V13.01,2013-10-08 21:27:00,
2013-10-08 16:29:00,73.2,49.4,29.12,South,171,8.7,8.7,43,0.00,,,0.00,VWS V13.01,2013-10-08 21:29:00,
2013-10-08 16:31:00,73.0,49.2,29.12,SSE,158,7.6,7.6,43,0.00,,,0.00,VWS V13.01,2013-10-08 21:31:00,
2013-10-08 16:32:00,73.2,49.4,29.12,South,179,9.2,9.2,43,0.00,,,0.00,VWS V13.01,2013-10-08 21:32:00,
2013-10-08 16:34:00,73.4,49.6,29.12,South,181,8.1,8.1,43,0.00,,,0.00,VWS V13.01,2013-10-08 21:34:00,
2013-10-08 16:36:00,73.0,49.2,29.12,SE,145,8.7,8.7,43,0.00,,,0.00,VWS V13.01,2013-10-08 21:36:00,
2013-10-08 16:37:00,72.9,49.1,29.12,South,189,12.8,12.8,43,0.00,,,0.00,VWS V13.01,2013-10-08 21:37:00,
2013-10-08 16:38:00,72.9,49.1,29.12,South,190,10.1,10.1,43,0.00,,,0.00,VWS V13.01,2013-10-08 21:38:00,
2013-10-08 16:39:00,72.7,48.9,29.12,South,173,10.1,10.1,43,0.00,,,0.00,VWS V13.01,2013-10-08 21:39:00,
2013-10-08 16:40:00,72.9,49.1,29.09,South,176,10.5,10.5,43,0.00,,,0.00,VWS V13.01,2013-10-08 21:40:00,
2013-10-08 16:41:00,73.0,49.2,29.09,South,176,8.7,8.7,43,0.00,,,0.00,VWS V13.01,2013-10-08 21:41:00,
2013-10-08 16:42:00,72.9,49.1,29.09,SSW,196,12.3,12.3,43,0.00,,,0.00,VWS V13.01,2013-10-08 21:42:00,
2013-10-08 16:43:00,73.0,49.2,29.09,SSW,201,10.1,10.1,43,0.00,,,0.00,VWS V13.01,2013-10-08 21:43:00,
2013-10-08 16:44:00,73.0,49.2,29.09,South,185,12.3,12.3,43,0.00,,,0.00,VWS V13.01,2013-10-08 21:44:00,
2013-10-08 16:45:00,73.2,49.4,29.09,SSW,197,10.1,10.1,43,0.00,,,0.00,VWS V13.01,2013-10-08 21:45:00,
2013-10-08 16:46:00,73.0,49.2,29.09,SSW,194,12.3,12.3,43,0.00,,,0.00,VWS V13.01,2013-10-08 21:46:00,
2013-10-08 16:47:00,72.9,49.1,29.09,SSW,192,8.1,8.1,43,0.00,,,0.00,VWS V13.01,2013-10-08 21:47:00,
2013-10-08 16:48:00,73.0,49.2,29.09,South,173,8.3,8.3,43,0.00,,,0.00,VWS V13.01,2013-10-08 21:48:00,
2013-10-08 16:49:00,72.9,49.1,29.09,South,189,10.1,10.1,43,0.00,,,0.00,VWS V13.01,2013-10-08 21:49:00,
2013-10-08 16:50:00,72.9,49.1,29.09,SSW,193,10.5,10.5,43,0.00,,,0.00,VWS V13.01,2013-10-08 21:50:00,
2013-10-08 16:51:00,72.7,48.9,29.09,South,175,8.7,8.7,43,0.00,,,0.00,VWS V13.01,2013-10-08 21:51:00,
2013-10-08 16:52:00,72.7,48.9,29.09,South,188,10.5,10.5,43,0.00,,,0.00,VWS V13.01,2013-10-08 21:52:00,
2013-10-08 16:53:00,72.7,48.9,29.09,South,186,7.6,7.6,43,0.00,,,0.00,VWS V13.01,2013-10-08 21:53:00,
2013-10-08 16:55:00,72.9,49.1,29.12,South,175,10.5,10.5,43,0.00,,,0.00,VWS V13.01,2013-10-08 21:55:00,
2013-10-08 16:56:00,73.0,49.2,29.12,South,182,7.6,7.6,43,0.00,,,0.00,VWS V13.01,2013-10-08 21:56:00,
2013-10-08 16:57:00,73.0,49.2,29.12,South,182,8.3,8.3,43,0.00,,,0.00,VWS V13.01,2013-10-08 21:57:00,
2013-10-08 16:58:00,73.0,49.2,29.12,South,180,7.6,7.6,43,0.00,,,0.00,VWS V13.01,2013-10-08 21:58:00,
2013-10-08 17:00:00,72.9,49.1,29.12,SSW,208,8.1,8.1,43,0.00,,,0.00,VWS V13.01,2013-10-08 22:00:00,
2013-10-08 17:01:00,72.9,49.1,29.12,SSE,155,10.1,10.1,43,0.00,,,0.00,VWS V13.01,2013-10-08 22:01:00,
2013-10-08 17:02:00,72.9,49.1,29.12,SSE,151,12.3,12.3,43,0.00,,,0.00,VWS V13.01,2013-10-08 22:02:00,
2013-10-08 17:03:00,72.7,48.9,29.12,South,172,8.7,8.7,43,0.00,,,0.00,VWS V13.01,2013-10-08 22:03:00,
2013-10-08 17:05:00,72.7,48.9,29.12,South,178,11.0,11.0,43,0.00,,,0.00,VWS V13.01,2013-10-08 22:05:00,
2013-10-08 17:06:00,72.5,48.8,29.12,South,176,12.3,12.3,43,0.00,,,0.00,VWS V13.01,2013-10-08 22:06:00,
2013-10-08 17:07:00,72.5,48.8,29.12,SSW,193,10.1,10.1,43,0.00,,,0.00,VWS V13.01,2013-10-08 22:07:00,
2013-10-08 17:08:00,72.5,48.8,29.12,South,188,4.9,4.9,43,0.00,,,0.00,VWS V13.01,2013-10-08 22:08:00,
2013-10-08 17:10:00,72.3,48.6,29.12,South,175,11.0,11.0,43,0.00,,,0.00,VWS V13.01,2013-10-08 22:10:00,
2013-10-08 17:11:00,72.3,48.6,29.12,South,190,8.1,8.1,43,0.00,,,0.00,VWS V13.01,2013-10-08 22:11:00,
2013-10-08 17:12:00,72.5,48.8,29.12,South,172,8.7,8.7,43,0.00,,,0.00,VWS V13.01,2013-10-08 22:12:00,
2013-10-08 17:13:00,72.3,48.6,29.12,SSE,167,10.5,10.5,43,0.00,,,0.00,VWS V13.01,2013-10-08 22:13:00,
2013-10-08 17:15:00,72.3,48.6,29.12,South,177,7.6,7.6,43,0.00,,,0.00,VWS V13.01,2013-10-08 22:15:00,
2013-10-08 17:16:00,72.3,48.6,29.12,South,178,8.7,8.7,43,0.00,,,0.00,VWS V13.01,2013-10-08 22:16:00,
2013-10-08 17:17:00,72.3,48.6,29.12,South,179,13.2,13.2,43,0.00,,,0.00,VWS V13.01,2013-10-08 22:17:00,
2013-10-08 17:18:00,72.3,48.6,29.12,South,188,10.1,10.1,43,0.00,,,0.00,VWS V13.01,2013-10-08 22:18:00,
2013-10-08 17:19:00,72.3,48.6,29.12,South,187,8.7,8.7,43,0.00,,,0.00,VWS V13.01,2013-10-08 22:19:00,
2013-10-08 17:20:00,72.1,48.4,29.12,South,176,6.3,6.3,43,0.00,,,0.00,VWS V13.01,2013-10-08 22:20:00,
2013-10-08 17:21:00,72.1,48.4,29.12,South,177,7.6,7.6,43,0.00,,,0.00,VWS V13.01,2013-10-08 22:21:00,
2013-10-08 17:22:00,72.3,48.6,29.12,South,172,3.6,3.6,43,0.00,,,0.00,VWS V13.01,2013-10-08 22:22:00,
2013-10-08 17:23:00,72.3,48.6,29.12,South,172,8.7,8.7,43,0.00,,,0.00,VWS V13.01,2013-10-08 22:23:00,
2013-10-08 17:24:00,72.3,48.6,29.12,South,178,8.3,8.3,43,0.00,,,0.00,VWS V13.01,2013-10-08 22:24:00,
2013-10-08 17:25:00,72.1,48.4,29.12,South,178,8.3,8.3,43,0.00,,,0.00,VWS V13.01,2013-10-08 22:25:00,
2013-10-08 17:26:00,72.1,48.4,29.12,South,191,10.1,10.1,43,0.00,,,0.00,VWS V13.01,2013-10-08 22:26:00,
2013-10-08 17:27:00,72.0,48.3,29.12,South,173,10.1,10.1,43,0.00,,,0.00,VWS V13.01,2013-10-08 22:27:00,
2013-10-08 17:28:00,72.0,48.3,29.12,South,177,8.3,8.3,43,0.00,,,0.00,VWS V13.01,2013-10-08 22:28:00,
2013-10-08 17:29:00,72.0,48.3,29.12,South,177,7.6,7.6,43,0.00,,,0.00,VWS V13.01,2013-10-08 22:29:00,
2013-10-08 17:31:00,72.0,48.3,29.12,South,176,8.1,8.1,43,0.00,,,0.00,VWS V13.01,2013-10-08 22:31:00,
2013-10-08 17:33:00,71.8,48.1,29.12,SSE,167,5.8,5.8,43,0.00,,,0.00,VWS V13.01,2013-10-08 22:33:00,
2013-10-08 17:34:00,71.8,48.1,29.12,South,178,8.7,8.7,43,0.00,,,0.00,VWS V13.01,2013-10-08 22:34:00,
2013-10-08 17:36:00,71.8,48.1,29.12,South,170,8.3,8.3,43,0.00,,,0.00,VWS V13.01,2013-10-08 22:36:00,
2013-10-08 17:38:00,71.6,47.9,29.12,South,185,8.7,8.7,43,0.00,,,0.00,VWS V13.01,2013-10-08 22:38:00,
2013-10-08 17:39:00,71.6,47.9,29.12,South,182,8.7,8.7,43,0.00,,,0.00,VWS V13.01,2013-10-08 22:39:00,
2013-10-08 17:41:00,71.4,51.3,29.12,South,178,8.3,8.3,49,0.00,,,0.00,VWS V13.01,2013-10-08 22:41:00,
2013-10-08 17:43:00,71.6,47.9,29.12,South,183,6.3,6.3,43,0.00,,,0.00,VWS V13.01,2013-10-08 22:43:00,
2013-10-08 17:44:00,71.4,51.3,29.12,SSW,205,4.9,4.9,49,0.00,,,0.00,VWS V13.01,2013-10-08 22:44:00,
2013-10-08 17:46:00,71.6,47.9,29.12,South,181,8.7,8.7,43,0.00,,,0.00,VWS V13.01,2013-10-08 22:46:00,
2013-10-08 17:48:00,71.6,47.9,29.12,South,178,8.7,8.7,43,0.00,,,0.00,VWS V13.01,2013-10-08 22:48:00,
2013-10-08 17:49:00,71.4,51.3,29.12,South,178,6.3,6.3,49,0.00,,,0.00,VWS V13.01,2013-10-08 22:49:00,
2013-10-08 17:51:00,71.1,51.0,29.12,South,183,5.4,5.4,49,0.00,,,0.00,VWS V13.01,2013-10-08 22:51:00,
2013-10-08 17:52:00,71.1,51.0,29.12,South,183,5.4,5.4,49,0.00,,,0.00,VWS V13.01,2013-10-08 22:52:00,
2013-10-08 17:53:00,71.1,51.0,29.12,South,179,5.8,5.8,49,0.00,,,0.00,VWS V13.01,2013-10-08 22:53:00,
2013-10-08 17:55:00,70.9,50.8,29.12,South,178,8.1,8.1,49,0.00,,,0.00,VWS V13.01,2013-10-08 22:55:00,
2013-10-08 17:56:00,70.9,50.8,29.12,South,176,5.4,5.4,49,0.00,,,0.00,VWS V13.01,2013-10-08 22:56:00,
2013-10-08 17:57:00,70.9,50.8,29.12,South,176,5.4,5.4,49,0.00,,,0.00,VWS V13.01,2013-10-08 22:57:00,
2013-10-08 17:58:00,70.9,50.8,29.12,South,178,8.7,8.7,49,0.00,,,0.00,VWS V13.01,2013-10-08 22:58:00,
2013-10-08 18:00:00,70.7,50.6,29.12,South,176,7.6,7.6,49,0.00,,,0.00,VWS V13.01,2013-10-08 23:00:00,
2013-10-08 18:02:00,70.5,50.5,29.12,South,182,5.8,5.8,49,0.00,,,0.00,VWS V13.01,2013-10-08 23:02:00,
2013-10-08 18:03:00,70.5,50.5,29.12,South,189,8.7,8.7,49,0.00,,,0.00,VWS V13.01,2013-10-08 23:03:00,
2013-10-08 18:05:00,70.3,50.3,29.12,South,178,6.3,6.3,49,0.00,,,0.00,VWS V13.01,2013-10-08 23:05:00,
2013-10-08 18:07:00,70.3,50.3,29.12,South,178,7.6,7.6,49,0.00,,,0.00,VWS V13.01,2013-10-08 23:07:00,
2013-10-08 18:08:00,70.0,50.0,29.12,South,176,7.6,7.6,49,0.00,,,0.00,VWS V13.01,2013-10-08 23:08:00,
2013-10-08 18:10:00,70.0,50.0,29.12,South,181,11.0,11.0,49,0.00,,,0.00,VWS V13.01,2013-10-08 23:10:00,
2013-10-08 18:12:00,70.2,50.1,29.12,South,175,7.6,7.6,49,0.00,,,0.00,VWS V13.01,2013-10-08 23:12:00,
2013-10-08 18:13:00,70.0,50.0,29.12,South,182,5.8,5.8,49,0.00,,,0.00,VWS V13.01,2013-10-08 23:13:00,
2013-10-08 18:14:00,70.0,50.0,29.12,South,178,6.3,6.3,49,0.00,,,0.00,VWS V13.01,2013-10-08 23:14:00,
2013-10-08 18:15:00,70.0,50.0,29.12,SSE,159,8.7,8.7,49,0.00,,,0.00,VWS V13.01,2013-10-08 23:15:00,
2013-10-08 18:17:00,69.8,49.8,29.12,South,184,7.6,7.6,49,0.00,,,0.00,VWS V13.01,2013-10-08 23:17:00,
2013-10-08 18:18:00,69.6,49.6,29.12,South,177,7.6,7.6,49,0.00,,,0.00,VWS V13.01,2013-10-08 23:18:00,
2013-10-08 18:19:00,69.4,49.5,29.12,South,177,6.3,6.3,49,0.00,,,0.00,VWS V13.01,2013-10-08 23:19:00,
2013-10-08 18:20:00,69.4,49.5,29.12,South,182,7.6,7.6,49,0.00,,,0.00,VWS V13.01,2013-10-08 23:20:00,
2013-10-08 18:22:00,69.1,49.1,29.12,SSE,163,4.0,4.0,49,0.00,,,0.00,VWS V13.01,2013-10-08 23:22:00,
2013-10-08 18:23:00,69.1,49.1,29.12,SSW,197,8.1,8.1,49,0.00,,,0.00,VWS V13.01,2013-10-08 23:23:00,
2013-10-08 18:24:00,69.3,49.3,29.12,South,182,6.3,6.3,49,0.00,,,0.00,VWS V13.01,2013-10-08 23:24:00,
2013-10-08 18:25:00,69.1,49.1,29.12,South,179,8.1,8.1,49,0.00,,,0.00,VWS V13.01,2013-10-08 23:25:00,
2013-10-08 18:27:00,68.9,49.0,29.12,South,189,7.6,7.6,49,0.00,,,0.00,VWS V13.01,2013-10-08 23:27:00,
2013-10-08 18:28:00,69.1,49.1,29.12,South,175,6.3,6.3,49,0.00,,,0.00,VWS V13.01,2013-10-08 23:28:00,
2013-10-08 18:29:00,69.1,49.1,29.12,South,178,8.1,8.1,49,0.00,,,0.00,VWS V13.01,2013-10-08 23:29:00,
2013-10-08 18:30:00,69.3,49.3,29.12,South,185,8.7,8.7,49,0.00,,,0.00,VWS V13.01,2013-10-08 23:30:00,
2013-10-08 18:32:00,68.7,48.8,29.12,South,180,6.3,6.3,49,0.00,,,0.00,VWS V13.01,2013-10-08 23:32:00,
2013-10-08 18:33:00,68.7,48.8,29.12,South,180,6.3,6.3,49,0.00,,,0.00,VWS V13.01,2013-10-08 23:33:00,
2013-10-08 18:34:00,68.5,48.6,29.12,South,186,6.3,6.3,49,0.00,,,0.00,VWS V13.01,2013-10-08 23:34:00,
2013-10-08 18:35:00,68.7,48.8,29.12,South,177,8.1,8.1,49,0.00,,,0.00,VWS V13.01,2013-10-08 23:35:00,
2013-10-08 18:37:00,68.4,48.5,29.12,South,177,5.4,5.4,49,0.00,,,0.00,VWS V13.01,2013-10-08 23:37:00,
2013-10-08 18:39:00,68.4,48.5,29.12,South,178,7.2,7.2,49,0.00,,,0.00,VWS V13.01,2013-10-08 23:39:00,
2013-10-08 18:40:00,68.2,48.3,29.12,South,178,5.4,5.4,49,0.00,,,0.00,VWS V13.01,2013-10-08 23:40:00,
2013-10-08 18:41:00,68.0,48.2,29.12,South,179,5.4,5.4,49,0.00,,,0.00,VWS V13.01,2013-10-08 23:41:00,
2013-10-08 18:42:00,68.0,48.2,29.12,South,178,5.4,5.4,49,0.00,,,0.00,VWS V13.01,2013-10-08 23:42:00,
2013-10-08 18:44:00,67.8,48.0,29.12,South,180,4.9,4.9,49,0.00,,,0.00,VWS V13.01,2013-10-08 23:44:00,
2013-10-08 18:45:00,67.6,47.8,29.12,South,180,6.3,6.3,49,0.00,,,0.00,VWS V13.01,2013-10-08 23:45:00,
2013-10-08 18:46:00,67.6,47.8,29.12,South,180,6.3,6.3,49,0.00,,,0.00,VWS V13.01,2013-10-08 23:46:00,
2013-10-08 18:47:00,67.3,47.5,29.12,South,180,5.4,5.4,49,0.00,,,0.00,VWS V13.01,2013-10-08 23:47:00,
2013-10-08 18:49:00,67.1,47.3,29.12,South,180,4.0,4.0,49,0.00,,,0.00,VWS V13.01,2013-10-08 23:49:00,
2013-10-08 18:50:00,66.9,47.2,29.12,South,180,4.9,4.9,49,0.00,,,0.00,VWS V13.01,2013-10-08 23:50:00,
2013-10-08 18:51:00,66.7,47.0,29.12,South,180,4.9,4.9,49,0.00,,,0.00,VWS V13.01,2013-10-08 23:51:00,
2013-10-08 18:52:00,66.6,46.8,29.12,South,180,5.4,5.4,49,0.00,,,0.00,VWS V13.01,2013-10-08 23:52:00,
2013-10-08 18:54:00,66.6,46.8,29.12,South,180,4.9,4.9,49,0.00,,,0.00,VWS V13.01,2013-10-08 23:54:00,
2013-10-08 18:55:00,66.6,46.8,29.12,South,180,4.5,4.5,49,0.00,,,0.00,VWS V13.01,2013-10-08 23:55:00,
2013-10-08 18:56:00,66.4,46.7,29.12,South,180,4.9,4.9,49,0.00,,,0.00,VWS V13.01,2013-10-08 23:56:00,
2013-10-08 18:57:00,66.4,46.7,29.12,South,180,4.0,4.0,49,0.00,,,0.00,VWS V13.01,2013-10-08 23:57:00,
2013-10-08 18:59:00,66.2,46.5,29.12,South,180,3.6,3.6,49,0.00,,,0.00,VWS V13.01,2013-10-08 23:59:00,
2013-10-08 19:00:00,66.2,46.5,29.12,South,180,5.4,5.4,49,0.00,,,0.00,VWS V13.01,2013-10-09 00:00:00,
2013-10-08 19:01:00,66.0,49.4,29.12,South,180,4.9,4.9,55,0.00,,,0.00,VWS V13.01,2013-10-09 00:01:00,
2013-10-08 19:02:00,66.0,49.4,29.12,South,180,6.3,6.3,55,0.00,,,0.00,VWS V13.01,2013-10-09 00:02:00,
2013-10-08 19:04:00,65.8,49.2,29.12,South,180,4.0,4.0,55,0.00,,,0.00,VWS V13.01,2013-10-09 00:04:00,
2013-10-08 19:05:00,65.8,49.2,29.12,South,180,4.9,4.9,55,0.00,,,0.00,VWS V13.01,2013-10-09 00:05:00,
2013-10-08 19:06:00,65.8,49.2,29.12,South,180,4.9,4.9,55,0.00,,,0.00,VWS V13.01,2013-10-09 00:06:00,
2013-10-08 19:07:00,65.7,49.1,29.12,South,180,5.4,5.4,55,0.00,,,0.00,VWS V13.01,2013-10-09 00:07:00,
2013-10-08 19:09:00,65.5,48.9,29.12,South,180,4.5,4.5,55,0.00,,,0.00,VWS V13.01,2013-10-09 00:09:00,
2013-10-08 19:10:00,65.5,48.9,29.12,South,180,5.4,5.4,55,0.00,,,0.00,VWS V13.01,2013-10-09 00:10:00,
2013-10-08 19:11:00,65.3,48.7,29.12,South,180,3.6,3.6,55,0.00,,,0.00,VWS V13.01,2013-10-09 00:11:00,
2013-10-08 19:12:00,65.3,48.7,29.12,South,180,4.9,4.9,55,0.00,,,0.00,VWS V13.01,2013-10-09 00:12:00,
2013-10-08 19:14:00,65.5,48.9,29.12,South,180,4.9,4.9,55,0.00,,,0.00,VWS V13.01,2013-10-09 00:14:00,
2013-10-08 19:15:00,65.3,48.7,29.12,South,180,4.5,4.5,55,0.00,,,0.00,VWS V13.01,2013-10-09 00:15:00,
2013-10-08 19:16:00,65.3,48.7,29.12,South,180,4.9,4.9,55,0.00,,,0.00,VWS V13.01,2013-10-09 00:16:00,
2013-10-08 19:17:00,65.3,48.7,29.12,South,180,4.9,4.9,55,0.00,,,0.00,VWS V13.01,2013-10-09 00:17:00,
2013-10-08 19:19:00,65.1,48.6,29.12,South,180,5.4,5.4,55,0.00,,,0.00,VWS V13.01,2013-10-09 00:19:00,
2013-10-08 19:20:00,64.9,48.4,29.12,South,180,4.0,4.0,55,0.00,,,0.00,VWS V13.01,2013-10-09 00:20:00,
2013-10-08 19:21:00,64.9,48.4,29.12,South,180,4.0,4.0,55,0.00,,,0.00,VWS V13.01,2013-10-09 00:21:00,
2013-10-08 19:22:00,64.8,48.2,29.12,South,180,4.0,4.0,55,0.00,,,0.00,VWS V13.01,2013-10-09 00:22:00,
2013-10-08 19:24:00,64.6,48.1,29.12,South,180,4.0,4.0,55,0.00,,,0.00,VWS V13.01,2013-10-09 00:24:00,
2013-10-08 19:25:00,64.4,47.9,29.12,South,180,3.6,3.6,55,0.00,,,0.00,VWS V13.01,2013-10-09 00:25:00,
2013-10-08 19:26:00,64.4,47.9,29.12,South,180,3.1,3.1,55,0.00,,,0.00,VWS V13.01,2013-10-09 00:26:00,
2013-10-08 19:27:00,64.2,47.7,29.12,South,180,3.1,3.1,55,0.00,,,0.00,VWS V13.01,2013-10-09 00:27:00,
2013-10-08 19:29:00,63.9,47.4,29.12,South,180,3.1,3.1,55,0.00,,,0.00,VWS V13.01,2013-10-09 00:29:00,
2013-10-08 19:30:00,63.9,47.4,29.12,South,180,2.7,2.7,55,0.00,,,0.00,VWS V13.01,2013-10-09 00:30:00,
2013-10-08 19:31:00,63.7,47.2,29.12,South,180,3.1,3.1,55,0.00,,,0.00,VWS V13.01,2013-10-09 00:31:00,
2013-10-08 19:32:00,63.5,47.1,29.12,South,180,2.7,2.7,55,0.00,,,0.00,VWS V13.01,2013-10-09 00:32:00,
2013-10-08 19:34:00,63.5,47.1,29.12,South,180,2.7,2.7,55,0.00,,,0.00,VWS V13.01,2013-10-09 00:34:00,
2013-10-08 19:35:00,63.3,46.9,29.12,South,180,2.7,2.7,55,0.00,,,0.00,VWS V13.01,2013-10-09 00:35:00,
2013-10-08 19:36:00,63.3,46.9,29.12,South,180,2.7,2.7,55,0.00,,,0.00,VWS V13.01,2013-10-09 00:36:00,
2013-10-08 19:37:00,63.1,46.7,29.12,South,180,2.7,2.7,55,0.00,,,0.00,VWS V13.01,2013-10-09 00:37:00,
2013-10-08 19:39:00,63.0,46.6,29.12,South,180,2.2,2.2,55,0.00,,,0.00,VWS V13.01,2013-10-09 00:39:00,
2013-10-08 19:40:00,63.0,46.6,29.12,South,180,2.7,2.7,55,0.00,,,0.00,VWS V13.01,2013-10-09 00:40:00,
2013-10-08 19:41:00,63.0,46.6,29.12,South,180,2.7,2.7,55,0.00,,,0.00,VWS V13.01,2013-10-09 00:41:00,
2013-10-08 19:42:00,62.8,46.4,29.12,South,180,2.7,2.7,55,0.00,,,0.00,VWS V13.01,2013-10-09 00:42:00,
2013-10-08 19:44:00,62.4,48.8,29.12,South,180,0.0,0.0,61,0.00,,,0.00,VWS V13.01,2013-10-09 00:44:00,
2013-10-08 19:45:00,62.2,48.6,29.12,South,180,0.0,0.0,61,0.00,,,0.00,VWS V13.01,2013-10-09 00:45:00,
2013-10-08 19:46:00,62.1,48.5,29.12,South,180,0.0,0.0,61,0.00,,,0.00,VWS V13.01,2013-10-09 00:46:00,
2013-10-08 19:47:00,62.1,48.5,29.12,South,180,0.0,0.0,61,0.00,,,0.00,VWS V13.01,2013-10-09 00:47:00,
2013-10-08 19:48:00,61.9,48.3,29.12,South,180,0.0,0.0,61,0.00,,,0.00,VWS V13.01,2013-10-09 00:48:00,
2013-10-08 19:49:00,61.7,48.1,29.12,South,180,0.0,0.0,61,0.00,,,0.00,VWS V13.01,2013-10-09 00:49:00,
2013-10-08 19:50:00,61.5,48.0,29.12,South,180,0.0,0.0,61,0.00,,,0.00,VWS V13.01,2013-10-09 00:50:00,
2013-10-08 19:51:00,61.5,48.0,29.12,South,180,0.0,0.0,61,0.00,,,0.00,VWS V13.01,2013-10-09 00:51:00,
2013-10-08 19:52:00,61.5,48.0,29.12,South,180,0.0,0.0,61,0.00,,,0.00,VWS V13.01,2013-10-09 00:52:00,
2013-10-08 19:53:00,61.5,48.0,29.12,South,180,0.0,0.0,61,0.00,,,0.00,VWS V13.01,2013-10-09 00:53:00,
2013-10-08 19:54:00,61.3,47.8,29.12,South,180,0.0,0.0,61,0.00,,,0.00,VWS V13.01,2013-10-09 00:54:00,
2013-10-08 19:55:00,61.5,48.0,29.12,South,180,0.0,0.0,61,0.00,,,0.00,VWS V13.01,2013-10-09 00:55:00,
2013-10-08 19:56:00,61.3,47.8,29.12,South,180,0.0,0.0,61,0.00,,,0.00,VWS V13.01,2013-10-09 00:56:00,
2013-10-08 19:57:00,61.3,47.8,29.12,South,180,0.0,0.0,61,0.00,,,0.00,VWS V13.01,2013-10-09 00:57:00,
2013-10-08 19:58:00,61.2,47.6,29.12,South,180,0.0,0.0,61,0.00,,,0.00,VWS V13.01,2013-10-09 00:58:00,
2013-10-08 19:59:00,61.0,47.5,29.12,South,180,0.0,0.0,61,0.00,,,0.00,VWS V13.01,2013-10-09 00:59:00,
2013-10-08 20:00:00,61.0,47.5,29.12,South,180,0.0,0.0,61,0.00,,,0.00,VWS V13.01,2013-10-09 01:00:00,
2013-10-08 20:02:00,61.0,47.5,29.12,South,180,0.0,0.0,61,0.00,,,0.00,VWS V13.01,2013-10-09 01:02:00,
2013-10-08 20:03:00,61.2,47.6,29.12,South,180,0.0,0.0,61,0.00,,,0.00,VWS V13.01,2013-10-09 01:03:00,
2013-10-08 20:04:00,61.2,47.6,29.12,South,180,0.0,0.0,61,0.00,,,0.00,VWS V13.01,2013-10-09 01:04:00,
2013-10-08 20:06:00,61.0,47.5,29.12,South,180,0.0,0.0,61,0.00,,,0.00,VWS V13.01,2013-10-09 01:06:00,
2013-10-08 20:07:00,61.0,47.5,29.12,South,180,0.0,0.0,61,0.00,,,0.00,VWS V13.01,2013-10-09 01:07:00,
2013-10-08 20:08:00,61.0,47.5,29.12,South,180,0.0,0.0,61,0.00,,,0.00,VWS V13.01,2013-10-09 01:08:00,
2013-10-08 20:09:00,61.0,47.5,29.12,South,180,0.0,0.0,61,0.00,,,0.00,VWS V13.01,2013-10-09 01:09:00,
2013-10-08 20:11:00,61.0,47.5,29.12,South,180,0.0,0.0,61,0.00,,,0.00,VWS V13.01,2013-10-09 01:11:00,
2013-10-08 20:12:00,61.0,47.5,29.12,South,180,0.0,0.0,61,0.00,,,0.00,VWS V13.01,2013-10-09 01:12:00,
2013-10-08 20:13:00,61.0,47.5,29.12,South,180,0.0,0.0,61,0.00,,,0.00,VWS V13.01,2013-10-09 01:13:00,
2013-10-08 20:15:00,61.0,47.5,29.12,South,180,0.0,0.0,61,0.00,,,0.00,VWS V13.01,2013-10-09 01:15:00,
2013-10-08 20:16:00,60.8,47.3,29.12,South,180,0.0,0.0,61,0.00,,,0.00,VWS V13.01,2013-10-09 01:16:00,
2013-10-08 20:17:00,60.8,47.3,29.12,South,180,0.0,0.0,61,0.00,,,0.00,VWS V13.01,2013-10-09 01:17:00,
2013-10-08 20:18:00,60.6,47.1,29.12,South,180,0.0,0.0,61,0.00,,,0.00,VWS V13.01,2013-10-09 01:18:00,
2013-10-08 20:20:00,60.6,47.1,29.12,South,180,0.0,0.0,61,0.00,,,0.00,VWS V13.01,2013-10-09 01:20:00,
2013-10-08 20:21:00,60.6,47.1,29.12,South,180,0.0,0.0,61,0.00,,,0.00,VWS V13.01,2013-10-09 01:21:00,
2013-10-08 20:22:00,60.4,46.9,29.12,South,180,0.0,0.0,61,0.00,,,0.00,VWS V13.01,2013-10-09 01:22:00,
2013-10-08 20:23:00,60.4,46.9,29.12,South,180,0.0,0.0,61,0.00,,,0.00,VWS V13.01,2013-10-09 01:23:00,
2013-10-08 20:25:00,60.3,46.8,29.12,South,180,0.0,0.0,61,0.00,,,0.00,VWS V13.01,2013-10-09 01:25:00,
2013-10-08 20:26:00,60.1,46.6,29.12,South,180,0.0,0.0,61,0.00,,,0.00,VWS V13.01,2013-10-09 01:26:00,
2013-10-08 20:27:00,60.1,46.6,29.12,South,180,0.0,0.0,61,0.00,,,0.00,VWS V13.01,2013-10-09 01:27:00,
2013-10-08 20:28:00,60.1,46.6,29.12,South,180,0.0,0.0,61,0.00,,,0.00,VWS V13.01,2013-10-09 01:28:00,
2013-10-08 20:30:00,60.1,46.6,29.12,South,180,0.0,0.0,61,0.00,,,0.00,VWS V13.01,2013-10-09 01:30:00,
2013-10-08 20:31:00,59.9,46.4,29.12,South,180,0.0,0.0,61,0.00,,,0.00,VWS V13.01,2013-10-09 01:31:00,
2013-10-08 20:32:00,59.9,46.4,29.12,South,180,0.0,0.0,61,0.00,,,0.00,VWS V13.01,2013-10-09 01:32:00,
2013-10-08 20:33:00,59.9,46.4,29.12,South,180,0.0,0.0,61,0.00,,,0.00,VWS V13.01,2013-10-09 01:33:00,
2013-10-08 20:34:00,59.7,46.3,29.12,South,180,0.0,0.0,61,0.00,,,0.00,VWS V13.01,2013-10-09 01:34:00,
2013-10-08 20:35:00,59.7,46.3,29.12,South,180,0.0,0.0,61,0.00,,,0.00,VWS V13.01,2013-10-09 01:35:00,
2013-10-08 20:36:00,59.7,46.3,29.12,South,180,0.0,0.0,61,0.00,,,0.00,VWS V13.01,2013-10-09 01:36:00,
2013-10-08 20:38:00,59.7,46.3,29.12,South,180,0.0,0.0,61,0.00,,,0.00,VWS V13.01,2013-10-09 01:38:00,
2013-10-08 20:39:00,59.7,46.3,29.12,South,180,0.0,0.0,61,0.00,,,0.00,VWS V13.01,2013-10-09 01:39:00,
2013-10-08 20:40:00,59.5,46.1,29.12,South,180,0.0,0.0,61,0.00,,,0.00,VWS V13.01,2013-10-09 01:40:00,
2013-10-08 20:41:00,59.5,46.1,29.12,South,180,0.0,0.0,61,0.00,,,0.00,VWS V13.01,2013-10-09 01:41:00,
2013-10-08 20:43:00,59.4,45.9,29.12,South,180,0.0,0.0,61,0.00,,,0.00,VWS V13.01,2013-10-09 01:43:00,
2013-10-08 20:44:00,59.4,45.9,29.12,South,180,0.0,0.0,61,0.00,,,0.00,VWS V13.01,2013-10-09 01:44:00,
2013-10-08 20:45:00,59.5,46.1,29.12,South,180,0.0,0.0,61,0.00,,,0.00,VWS V13.01,2013-10-09 01:45:00,
2013-10-08 20:46:00,59.5,46.1,29.12,South,180,0.0,0.0,61,0.00,,,0.00,VWS V13.01,2013-10-09 01:46:00,
2013-10-08 20:48:00,59.5,46.1,29.12,South,180,0.0,0.0,61,0.00,,,0.00,VWS V13.01,2013-10-09 01:48:00,
2013-10-08 20:49:00,59.5,46.1,29.12,South,180,0.0,0.0,61,0.00,,,0.00,VWS V13.01,2013-10-09 01:49:00,
2013-10-08 20:51:00,59.5,46.1,29.12,South,180,0.0,0.0,61,0.00,,,0.00,VWS V13.01,2013-10-09 01:51:00,
2013-10-08 20:53:00,59.7,46.3,29.12,South,180,0.0,0.0,61,0.00,,,0.00,VWS V13.01,2013-10-09 01:53:00,
2013-10-08 20:54:00,59.9,46.4,29.15,South,180,0.0,0.0,61,0.00,,,0.00,VWS V13.01,2013-10-09 01:54:00,
2013-10-08 20:56:00,59.9,46.4,29.15,South,180,0.0,0.0,61,0.00,,,0.00,VWS V13.01,2013-10-09 01:56:00,
2013-10-08 20:58:00,59.9,46.4,29.15,South,180,0.0,0.0,61,0.00,,,0.00,VWS V13.01,2013-10-09 01:58:00,
2013-10-08 20:59:00,59.9,46.4,29.15,South,180,0.0,0.0,61,0.00,,,0.00,VWS V13.01,2013-10-09 01:59:00,
2013-10-08 21:01:00,59.9,46.4,29.15,South,180,0.0,0.0,61,0.00,,,0.00,VWS V13.01,2013-10-09 02:01:00,
2013-10-08 21:03:00,59.9,46.4,29.15,South,180,0.0,0.0,61,0.00,,,0.00,VWS V13.01,2013-10-09 02:03:00,
2013-10-08 21:04:00,59.9,46.4,29.15,South,180,0.0,0.0,61,0.00,,,0.00,VWS V13.01,2013-10-09 02:04:00,
2013-10-08 21:06:00,59.7,46.3,29.15,South,180,0.0,0.0,61,0.00,,,0.00,VWS V13.01,2013-10-09 02:06:00,
2013-10-08 21:08:00,59.7,46.3,29.15,South,180,0.0,0.0,61,0.00,,,0.00,VWS V13.01,2013-10-09 02:08:00,
2013-10-08 21:09:00,59.7,46.3,29.15,South,180,0.0,0.0,61,0.00,,,0.00,VWS V13.01,2013-10-09 02:09:00,
2013-10-08 21:11:00,59.9,46.4,29.15,South,180,0.0,0.0,61,0.00,,,0.00,VWS V13.01,2013-10-09 02:11:00,
2013-10-08 21:13:00,59.7,46.3,29.15,South,180,0.0,0.0,61,0.00,,,0.00,VWS V13.01,2013-10-09 02:13:00,
2013-10-08 21:14:00,59.5,46.1,29.15,South,180,0.0,0.0,61,0.00,,,0.00,VWS V13.01,2013-10-09 02:14:00,
2013-10-08 21:16:00,59.5,46.1,29.15,South,180,0.0,0.0,61,0.00,,,0.00,VWS V13.01,2013-10-09 02:16:00,
2013-10-08 21:18:00,59.4,45.9,29.15,South,180,0.0,0.0,61,0.00,,,0.00,VWS V13.01,2013-10-09 02:18:00,
2013-10-08 21:19:00,59.4,45.9,29.15,South,180,0.0,0.0,61,0.00,,,0.00,VWS V13.01,2013-10-09 02:19:00,
2013-10-08 21:20:00,59.4,45.9,29.15,South,180,0.0,0.0,61,0.00,,,0.00,VWS V13.01,2013-10-09 02:20:00,
2013-10-08 21:21:00,59.2,45.8,29.15,South,180,0.0,0.0,61,0.00,,,0.00,VWS V13.01,2013-10-09 02:21:00,
2013-10-08 21:22:00,59.2,45.8,29.15,South,180,0.0,0.0,61,0.00,,,0.00,VWS V13.01,2013-10-09 02:22:00,
2013-10-08 21:23:00,59.2,45.8,29.15,South,180,0.0,0.0,61,0.00,,,0.00,VWS V13.01,2013-10-09 02:23:00,
2013-10-08 21:24:00,59.0,45.6,29.15,South,180,0.0,0.0,61,0.00,,,0.00,VWS V13.01,2013-10-09 02:24:00,
2013-10-08 21:25:00,59.0,45.6,29.15,South,180,0.0,0.0,61,0.00,,,0.00,VWS V13.01,2013-10-09 02:25:00,
2013-10-08 21:26:00,59.0,45.6,29.15,South,180,0.0,0.0,61,0.00,,,0.00,VWS V13.01,2013-10-09 02:26:00,
2013-10-08 21:27:00,58.8,45.4,29.15,South,180,0.0,0.0,61,0.00,,,0.00,VWS V13.01,2013-10-09 02:27:00,
2013-10-08 21:28:00,58.8,45.4,29.15,South,180,0.0,0.0,61,0.00,,,0.00,VWS V13.01,2013-10-09 02:28:00,
2013-10-08 21:29:00,58.8,45.4,29.15,South,180,0.0,0.0,61,0.00,,,0.00,VWS V13.01,2013-10-09 02:29:00,
2013-10-08 21:30:00,58.8,45.4,29.15,South,180,0.0,0.0,61,0.00,,,0.00,VWS V13.01,2013-10-09 02:30:00,
2013-10-08 21:31:00,58.8,45.4,29.15,South,180,0.0,0.0,61,0.00,,,0.00,VWS V13.01,2013-10-09 02:31:00,
2013-10-08 21:32:00,58.6,45.2,29.15,South,180,0.0,0.0,61,0.00,,,0.00,VWS V13.01,2013-10-09 02:32:00,
2013-10-08 21:34:00,58.6,45.2,29.15,South,180,0.0,0.0,61,0.00,,,0.00,VWS V13.01,2013-10-09 02:34:00,
2013-10-08 21:36:00,58.6,45.2,29.15,South,180,0.0,0.0,61,0.00,,,0.00,VWS V13.01,2013-10-09 02:36:00,
2013-10-08 21:37:00,58.6,45.2,29.15,South,180,0.0,0.0,61,0.00,,,0.00,VWS V13.01,2013-10-09 02:37:00,
2013-10-08 21:39:00,58.6,45.2,29.15,South,180,0.0,0.0,61,0.00,,,0.00,VWS V13.01,2013-10-09 02:39:00,
2013-10-08 21:41:00,58.8,45.4,29.12,South,180,0.0,0.0,61,0.00,,,0.00,VWS V13.01,2013-10-09 02:41:00,
2013-10-08 21:42:00,58.6,45.2,29.12,South,180,0.0,0.0,61,0.00,,,0.00,VWS V13.01,2013-10-09 02:42:00,
2013-10-08 21:44:00,58.6,45.2,29.12,South,180,0.0,0.0,61,0.00,,,0.00,VWS V13.01,2013-10-09 02:44:00,
2013-10-08 21:45:00,58.6,45.2,29.12,South,180,0.0,0.0,61,0.00,,,0.00,VWS V13.01,2013-10-09 02:45:00,
2013-10-08 21:46:00,58.6,45.2,29.12,South,180,0.0,0.0,61,0.00,,,0.00,VWS V13.01,2013-10-09 02:46:00,
2013-10-08 21:47:00,58.8,45.4,29.12,South,180,0.0,0.0,61,0.00,,,0.00,VWS V13.01,2013-10-09 02:47:00,
2013-10-08 21:49:00,58.8,45.4,29.12,South,180,0.0,0.0,61,0.00,,,0.00,VWS V13.01,2013-10-09 02:49:00,
2013-10-08 21:50:00,58.6,45.2,29.12,South,180,0.0,0.0,61,0.00,,,0.00,VWS V13.01,2013-10-09 02:50:00,
2013-10-08 21:51:00,58.6,45.2,29.12,South,180,0.0,0.0,61,0.00,,,0.00,VWS V13.01,2013-10-09 02:51:00,
2013-10-08 21:52:00,58.6,45.2,29.12,South,180,0.0,0.0,61,0.00,,,0.00,VWS V13.01,2013-10-09 02:52:00,
2013-10-08 21:54:00,58.5,45.1,29.12,South,180,0.0,0.0,61,0.00,,,0.00,VWS V13.01,2013-10-09 02:54:00,
2013-10-08 21:55:00,58.5,45.1,29.12,South,180,0.0,0.0,61,0.00,,,0.00,VWS V13.01,2013-10-09 02:55:00,
2013-10-08 21:56:00,58.3,44.9,29.12,South,180,0.0,0.0,61,0.00,,,0.00,VWS V13.01,2013-10-09 02:56:00,
2013-10-08 21:57:00,58.3,44.9,29.12,South,180,0.0,0.0,61,0.00,,,0.00,VWS V13.01,2013-10-09 02:57:00,
2013-10-08 21:59:00,58.1,44.7,29.12,South,180,0.0,0.0,61,0.00,,,0.00,VWS V13.01,2013-10-09 02:59:00,
2013-10-08 22:00:00,58.1,44.7,29.12,South,180,0.0,0.0,61,0.00,,,0.00,VWS V13.01,2013-10-09 03:00:00,
2013-10-08 22:02:00,57.9,44.6,29.12,South,180,0.0,0.0,61,0.00,,,0.00,VWS V13.01,2013-10-09 03:02:00,
2013-10-08 22:04:00,57.7,44.4,29.12,South,180,0.0,0.0,61,0.00,,,0.00,VWS V13.01,2013-10-09 03:04:00,
2013-10-08 22:05:00,57.7,44.4,29.12,South,180,0.0,0.0,61,0.00,,,0.00,VWS V13.01,2013-10-09 03:05:00,
2013-10-08 22:07:00,57.6,44.2,29.12,South,180,0.0,0.0,61,0.00,,,0.00,VWS V13.01,2013-10-09 03:07:00,
2013-10-08 22:09:00,57.6,44.2,29.12,South,180,0.0,0.0,61,0.00,,,0.00,VWS V13.01,2013-10-09 03:09:00,
2013-10-08 22:10:00,57.6,44.2,29.12,South,180,0.0,0.0,61,0.00,,,0.00,VWS V13.01,2013-10-09 03:10:00,
2013-10-08 22:12:00,57.6,44.2,29.12,South,180,0.0,0.0,61,0.00,,,0.00,VWS V13.01,2013-10-09 03:12:00,
2013-10-08 22:14:00,57.6,44.2,29.12,South,180,0.0,0.0,61,0.00,,,0.00,VWS V13.01,2013-10-09 03:14:00,
2013-10-08 22:15:00,57.6,44.2,29.12,South,180,0.0,0.0,61,0.00,,,0.00,VWS V13.01,2013-10-09 03:15:00,
2013-10-08 22:17:00,57.6,44.2,29.12,South,180,0.0,0.0,61,0.00,,,0.00,VWS V13.01,2013-10-09 03:17:00,
2013-10-08 22:18:00,57.6,44.2,29.12,South,180,0.0,0.0,61,0.00,,,0.00,VWS V13.01,2013-10-09 03:18:00,
2013-10-08 22:19:00,57.4,44.1,29.12,South,180,0.0,0.0,61,0.00,,,0.00,VWS V13.01,2013-10-09 03:19:00,
2013-10-08 22:20:00,57.4,44.1,29.12,South,180,0.0,0.0,61,0.00,,,0.00,VWS V13.01,2013-10-09 03:20:00,
2013-10-08 22:22:00,57.2,43.9,29.12,South,180,0.0,0.0,61,0.00,,,0.00,VWS V13.01,2013-10-09 03:22:00,
2013-10-08 22:23:00,57.0,46.2,29.12,South,180,0.0,0.0,67,0.00,,,0.00,VWS V13.01,2013-10-09 03:23:00,
2013-10-08 22:25:00,56.8,46.0,29.12,South,180,0.0,0.0,67,0.00,,,0.00,VWS V13.01,2013-10-09 03:25:00,
2013-10-08 22:27:00,56.7,50.2,29.12,South,180,0.0,0.0,79,0.00,,,0.00,VWS V13.01,2013-10-09 03:27:00,
2013-10-08 22:28:00,56.7,50.2,29.12,South,180,0.0,0.0,79,0.00,,,0.00,VWS V13.01,2013-10-09 03:28:00,
2013-10-08 22:29:00,56.7,50.2,29.12,South,180,0.0,0.0,79,0.00,,,0.00,VWS V13.01,2013-10-09 03:29:00,
2013-10-08 22:30:00,56.7,50.2,29.12,South,180,0.0,0.0,79,0.00,,,0.00,VWS V13.01,2013-10-09 03:30:00,
2013-10-08 22:32:00,56.5,50.1,29.12,South,180,0.0,0.0,79,0.00,,,0.00,VWS V13.01,2013-10-09 03:32:00,
2013-10-08 22:33:00,56.5,50.1,29.12,South,180,0.0,0.0,79,0.00,,,0.00,VWS V13.01,2013-10-09 03:33:00,
2013-10-08 22:34:00,56.5,50.1,29.12,South,180,0.0,0.0,79,0.00,,,0.00,VWS V13.01,2013-10-09 03:34:00,
2013-10-08 22:35:00,56.3,49.9,29.12,South,180,0.0,0.0,79,0.00,,,0.00,VWS V13.01,2013-10-09 03:35:00,
2013-10-08 22:36:00,56.3,49.9,29.12,South,180,0.0,0.0,79,0.00,,,0.00,VWS V13.01,2013-10-09 03:36:00,
2013-10-08 22:37:00,56.3,49.9,29.12,South,180,0.0,0.0,79,0.00,,,0.00,VWS V13.01,2013-10-09 03:37:00,
2013-10-08 22:38:00,56.3,49.9,29.12,South,180,0.0,0.0,79,0.00,,,0.00,VWS V13.01,2013-10-09 03:38:00,
2013-10-08 22:39:00,56.3,49.9,29.12,South,180,0.0,0.0,79,0.00,,,0.00,VWS V13.01,2013-10-09 03:39:00,
2013-10-08 22:40:00,56.3,49.9,29.12,South,180,0.0,0.0,79,0.00,,,0.00,VWS V13.01,2013-10-09 03:40:00,
2013-10-08 22:41:00,56.3,49.9,29.12,South,180,0.0,0.0,79,0.00,,,0.00,VWS V13.01,2013-10-09 03:41:00,
2013-10-08 22:42:00,56.3,49.9,29.12,South,180,0.0,0.0,79,0.00,,,0.00,VWS V13.01,2013-10-09 03:42:00,
2013-10-08 22:43:00,56.3,49.9,29.12,South,180,0.0,0.0,79,0.00,,,0.00,VWS V13.01,2013-10-09 03:43:00,
2013-10-08 22:44:00,56.3,49.9,29.12,South,180,0.0,0.0,79,0.00,,,0.00,VWS V13.01,2013-10-09 03:44:00,
2013-10-08 22:45:00,56.3,49.9,29.12,South,180,0.0,0.0,79,0.00,,,0.00,VWS V13.01,2013-10-09 03:45:00,
2013-10-08 22:46:00,56.3,49.9,29.12,South,180,0.0,0.0,79,0.00,,,0.00,VWS V13.01,2013-10-09 03:46:00,
2013-10-08 22:47:00,56.3,49.9,29.12,South,180,0.0,0.0,79,0.00,,,0.00,VWS V13.01,2013-10-09 03:47:00,
2013-10-08 22:48:00,56.1,49.7,29.12,South,180,0.0,0.0,79,0.00,,,0.00,VWS V13.01,2013-10-09 03:48:00,
2013-10-08 22:49:00,56.1,49.7,29.12,South,180,0.0,0.0,79,0.00,,,0.00,VWS V13.01,2013-10-09 03:49:00,
2013-10-08 22:50:00,56.1,49.7,29.12,South,180,0.0,0.0,79,0.00,,,0.00,VWS V13.01,2013-10-09 03:50:00,
2013-10-08 22:51:00,56.1,49.7,29.12,South,180,0.0,0.0,79,0.00,,,0.00,VWS V13.01,2013-10-09 03:51:00,
2013-10-08 22:52:00,56.3,49.9,29.12,South,180,0.0,0.0,79,0.00,,,0.00,VWS V13.01,2013-10-09 03:52:00,
2013-10-08 22:53:00,56.3,49.9,29.12,South,180,0.0,0.0,79,0.00,,,0.00,VWS V13.01,2013-10-09 03:53:00,
2013-10-08 22:54:00,56.3,49.9,29.12,South,180,0.0,0.0,79,0.00,,,0.00,VWS V13.01,2013-10-09 03:54:00,
2013-10-08 22:55:00,56.3,49.9,29.15,South,180,0.0,0.0,79,0.00,,,0.00,VWS V13.01,2013-10-09 03:55:00,
2013-10-08 22:56:00,56.3,49.9,29.15,South,180,0.0,0.0,79,0.00,,,0.00,VWS V13.01,2013-10-09 03:56:00,
2013-10-08 22:57:00,56.3,49.9,29.15,South,180,0.0,0.0,79,0.00,,,0.00,VWS V13.01,2013-10-09 03:57:00,
2013-10-08 22:58:00,56.5,50.1,29.15,South,180,0.0,0.0,79,0.00,,,0.00,VWS V13.01,2013-10-09 03:58:00,
2013-10-08 22:59:00,56.5,50.1,29.15,South,180,0.0,0.0,79,0.00,,,0.00,VWS V13.01,2013-10-09 03:59:00,
2013-10-08 23:00:00,56.5,50.1,29.15,South,180,0.0,0.0,79,0.00,,,0.00,VWS V13.01,2013-10-09 04:00:00,
2013-10-08 23:01:00,56.5,50.1,29.15,South,180,0.0,0.0,79,0.00,,,0.00,VWS V13.01,2013-10-09 04:01:00,
2013-10-08 23:06:00,56.7,50.2,29.15,South,180,0.0,0.0,79,0.00,,,0.00,VWS V13.01,2013-10-09 04:06:00,
2013-10-08 23:11:00,56.7,50.2,29.12,South,180,0.0,0.0,79,0.00,,,0.00,VWS V13.01,2013-10-09 04:11:00,
2013-10-08 23:16:00,56.7,50.2,29.12,South,180,0.0,0.0,79,0.00,,,0.00,VWS V13.01,2013-10-09 04:16:00,
2013-10-08 23:21:00,56.7,50.2,29.12,South,180,0.0,0.0,79,0.00,,,0.00,VWS V13.01,2013-10-09 04:21:00,
2013-10-08 23:22:00,56.5,50.1,29.12,South,180,0.0,0.0,79,0.00,,,0.00,VWS V13.01,2013-10-09 04:22:00,
2013-10-08 23:26:00,56.3,49.9,29.12,South,180,0.0,0.0,79,0.00,,,0.00,VWS V13.01,2013-10-09 04:26:00,
2013-10-08 23:27:00,56.3,49.9,29.12,South,180,0.0,0.0,79,0.00,,,0.00,VWS V13.01,2013-10-09 04:27:00,
2013-10-08 23:31:00,56.1,49.7,29.12,South,180,0.0,0.0,79,0.00,,,0.00,VWS V13.01,2013-10-09 04:31:00,
2013-10-08 23:32:00,56.1,49.7,29.12,South,180,0.0,0.0,79,0.00,,,0.00,VWS V13.01,2013-10-09 04:32:00,
2013-10-08 23:36:00,55.9,49.5,29.12,South,180,0.0,0.0,79,0.00,,,0.00,VWS V13.01,2013-10-09 04:36:00,
2013-10-08 23:37:00,55.9,49.5,29.12,South,180,0.0,0.0,79,0.00,,,0.00,VWS V13.01,2013-10-09 04:37:00,
2013-10-08 23:41:00,55.9,49.5,29.12,South,180,0.0,0.0,79,0.00,,,0.00,VWS V13.01,2013-10-09 04:41:00,
2013-10-08 23:42:00,55.8,49.4,29.12,South,180,0.0,0.0,79,0.00,,,0.00,VWS V13.01,2013-10-09 04:42:00,
2013-10-08 23:46:00,55.8,49.4,29.12,South,180,0.0,0.0,79,0.00,,,0.00,VWS V13.01,2013-10-09 04:46:00,
2013-10-08 23:47:00,55.8,49.4,29.12,South,180,0.0,0.0,79,0.00,,,0.00,VWS V13.01,2013-10-09 04:47:00,
2013-10-08 23:51:00,55.4,49.0,29.12,South,180,0.0,0.0,79,0.00,,,0.00,VWS V13.01,2013-10-09 04:51:00,
2013-10-08 23:52:00,55.4,49.0,29.12,South,180,0.0,0.0,79,0.00,,,0.00,VWS V13.01,2013-10-09 04:52:00,
2013-10-08 23:56:00,54.9,54.0,29.12,South,180,0.0,0.0,97,0.00,,,0.00,VWS V13.01,2013-10-09 04:56:00,
2013-10-08 23:57:00,54.9,54.0,29.12,South,180,0.0,0.0,97,0.00,,,0.00,VWS V13.01,2013-10-09 04:57:00,